Wetterdaten: Sonntag, 11.02.2018
Datum Zeit Temp. Aussen Temp. o. S. +5cm Feuchte Auss BlattFeu 1 Luftdruck Regen Sonnenschein Regendauer Solar Windben Empfang
11.02.2018 00:00 2,1 C 2,2 C 0,6 C 76 % 0 lf 1008,3 hPa 0,0 l/m 0 min 0 min 0 W/m 18,0 km/h (3 Bft) 97,87 %
11.02.2018 00:02 2,1 C 2,2 C 0,6 C 76 % 0 lf 1008,3 hPa 0,0 l/m 0 min 0 min 0 W/m 18,0 km/h (3 Bft) 95,35 %
11.02.2018 00:04 2,1 C 2,2 C 0,6 C 76 % 0 lf 1008,2 hPa 0,0 l/m 0 min 0 min 0 W/m 20,3 km/h (4 Bft) 97,83 %
11.02.2018 00:07 2,1 C 2,2 C 0,6 C 76 % 0 lf 1008,2 hPa 0,0 l/m 0 min 0 min 0 W/m 27,0 km/h (4 Bft) 97,83 %
11.02.2018 00:08 2,1 C 2,2 C 0,6 C 76 % 0 lf 1008,1 hPa 0,0 l/m 0 min 0 min 0 W/m 27,0 km/h (4 Bft) 99,06 %
11.02.2018 00:10 2,1 C 2,2 C 0,6 C 77 % 0 lf 1008,1 hPa 0,0 l/m 0 min 0 min 0 W/m 18,0 km/h (3 Bft) 94,44 %
11.02.2018 00:12 2,1 C 2,2 C 0,6 C 77 % 0 lf 1008,1 hPa 0,0 l/m 0 min 0 min 0 W/m 20,3 km/h (4 Bft) 95,65 %
11.02.2018 00:14 2,1 C 2,2 C 0,6 C 77 % 0 lf 1008,0 hPa 0,0 l/m 0 min 0 min 0 W/m 29,3 km/h (5 Bft) 100,00 %
11.02.2018 00:16 2,1 C 2,2 C 0,6 C 77 % 0 lf 1007,9 hPa 0,0 l/m 0 min 0 min 0 W/m 24,8 km/h (4 Bft) 100,00 %
11.02.2018 00:18 2,1 C 2,2 C 0,6 C 78 % 0 lf 1007,8 hPa 0,0 l/m 0 min 0 min 0 W/m 18,0 km/h (3 Bft) 95,74 %
11.02.2018 00:20 2,1 C 2,2 C 0,6 C 77 % 0 lf 1007,7 hPa 0,0 l/m 0 min 0 min 0 W/m 24,8 km/h (4 Bft) 100,00 %
11.02.2018 00:22 2,1 C 2,2 C 0,6 C 78 % 0 lf 1007,7 hPa 0,0 l/m 0 min 0 min 0 W/m 31,5 km/h (5 Bft) 100,00 %
11.02.2018 00:24 2,1 C 2,2 C 0,6 C 78 % 0 lf 1007,7 hPa 0,0 l/m 0 min 0 min 0 W/m 27,0 km/h (4 Bft) 100,00 %
11.02.2018 00:26 2,1 C 2,2 C 0,6 C 78 % 0 lf 1007,7 hPa 0,0 l/m 0 min 0 min 0 W/m 13,5 km/h (3 Bft) 93,48 %
11.02.2018 00:28 2,1 C 2,2 C 0,6 C 78 % 0 lf 1007,6 hPa 0,0 l/m 0 min 0 min 0 W/m 20,3 km/h (4 Bft) 100,00 %
11.02.2018 00:30 2,1 C 2,2 C 0,6 C 78 % 0 lf 1007,6 hPa 0,0 l/m 0 min 0 min 0 W/m 18,0 km/h (3 Bft) 100,00 %
11.02.2018 00:32 2,0 C 2,2 C 0,6 C 79 % 0 lf 1007,6 hPa 0,0 l/m 0 min 0 min 0 W/m 18,0 km/h (3 Bft) 97,87 %
11.02.2018 00:34 2,0 C 2,2 C 0,6 C 79 % 0 lf 1007,5 hPa 0,0 l/m 0 min 0 min 0 W/m 22,5 km/h (4 Bft) 95,74 %
11.02.2018 00:36 2,0 C 2,2 C 0,6 C 79 % 2 lf 1007,5 hPa 0,0 l/m 0 min 0 min 0 W/m 29,3 km/h (5 Bft) 93,62 %
11.02.2018 00:38 2,0 C 1,7 C 0,6 C 79 % 1 lf 1007,6 hPa 0,0 l/m 0 min 0 min 0 W/m 31,5 km/h (5 Bft) 97,83 %
11.02.2018 00:40 2,0 C 1,7 C 0,0 C 80 % 1 lf 1007,4 hPa 0,0 l/m 0 min 0 min 0 W/m 18,0 km/h (3 Bft) 97,87 %
11.02.2018 00:42 2,0 C 1,7 C 0,0 C 80 % 9 lf 1007,3 hPa 0,0 l/m 0 min 0 min 0 W/m 18,0 km/h (3 Bft) 93,62 %
11.02.2018 00:44 2,0 C 1,7 C 0,0 C 80 % 9 lf 1007,3 hPa 0,0 l/m 0 min 0 min 0 W/m 27,0 km/h (4 Bft) 97,87 %
11.02.2018 00:46 2,0 C 1,1 C -0,6 C 81 % 13 lf 1007,3 hPa 0,0 l/m 0 min 0 min 0 W/m 20,3 km/h (4 Bft) 95,74 %
11.02.2018 00:48 1,9 C 1,1 C -0,6 C 82 % 13 lf 1007,3 hPa 0,0 l/m 0 min 0 min 0 W/m 24,8 km/h (4 Bft) 95,74 %
11.02.2018 00:50 1,9 C 1,1 C -0,6 C 82 % 15 lf 1007,3 hPa 0,0 l/m 0 min 0 min 0 W/m 18,0 km/h (3 Bft) 95,65 %
11.02.2018 00:52 1,9 C 1,1 C -0,6 C 83 % 15 lf 1007,2 hPa 0,0 l/m 0 min 0 min 0 W/m 27,0 km/h (4 Bft) 95,74 %
11.02.2018 00:54 1,8 C 0,6 C -0,6 C 83 % 15 lf 1007,2 hPa 0,0 l/m 0 min 0 min 0 W/m 20,3 km/h (4 Bft) 97,87 %
11.02.2018 00:56 1,8 C 0,6 C -0,6 C 84 % 15 lf 1007,2 hPa 0,0 l/m 0 min 0 min 0 W/m 22,5 km/h (4 Bft) 95,74 %
11.02.2018 00:58 1,7 C 0,6 C -0,6 C 85 % 15 lf 1007,2 hPa 0,0 l/m 0 min 0 min 0 W/m 22,5 km/h (4 Bft) 93,62 %
11.02.2018 01:00 1,7 C 0,6 C -1,1 C 85 % 15 lf 1007,2 hPa 0,0 l/m 0 min 2 min 0 W/m 20,3 km/h (4 Bft) 93,48 %
11.02.2018 01:02 1,7 C 0,6 C -1,1 C 86 % 15 lf 1007,2 hPa 0,0 l/m 0 min 2 min 0 W/m 22,5 km/h (4 Bft) 91,49 %
11.02.2018 01:04 1,6 C 0,0 C -1,1 C 86 % 15 lf 1007,2 hPa 0,0 l/m 0 min 2 min 0 W/m 18,0 km/h (3 Bft) 97,87 %
11.02.2018 01:06 1,6 C 0,0 C -1,1 C 87 % 15 lf 1007,1 hPa 0,0 l/m 0 min 2 min 0 W/m 13,5 km/h (3 Bft) 93,62 %
11.02.2018 01:08 1,5 C 0,0 C -1,1 C 87 % 15 lf 1007,1 hPa 0,0 l/m 0 min 2 min 0 W/m 22,5 km/h (4 Bft) 97,87 %
11.02.2018 01:10 1,4 C 0,0 C -1,1 C 87 % 15 lf 1007,0 hPa 0,0 l/m 0 min 2 min 0 W/m 22,5 km/h (4 Bft) 97,87 %
11.02.2018 01:12 1,4 C 0,0 C -1,1 C 88 % 15 lf 1007,0 hPa 0,0 l/m 0 min 2 min 0 W/m 24,8 km/h (4 Bft) 95,65 %
11.02.2018 01:14 1,3 C 0,0 C -1,1 C 88 % 15 lf 1007,0 hPa 0,0 l/m 0 min 2 min 0 W/m 15,8 km/h (3 Bft) 97,87 %
11.02.2018 01:16 1,3 C 0,0 C -1,1 C 88 % 15 lf 1006,8 hPa 0,0 l/m 0 min 2 min 0 W/m 24,8 km/h (4 Bft) 95,74 %
11.02.2018 01:18 1,2 C 0,0 C -1,1 C 89 % 15 lf 1006,8 hPa 0,0 l/m 0 min 2 min 0 W/m 24,8 km/h (4 Bft) 97,87 %
11.02.2018 01:20 1,1 C 0,0 C -1,1 C 89 % 15 lf 1006,7 hPa 0,0 l/m 0 min 2 min 0 W/m 22,5 km/h (4 Bft) 100,00 %
11.02.2018 01:22 1,1 C 0,0 C -1,1 C 90 % 15 lf 1006,6 hPa 0,0 l/m 0 min 2 min 0 W/m 20,3 km/h (4 Bft) 100,00 %
11.02.2018 01:24 1,1 C 0,0 C -1,1 C 90 % 15 lf 1006,6 hPa 0,0 l/m 0 min 2 min 0 W/m 15,8 km/h (3 Bft) 95,65 %
11.02.2018 01:26 1,0 C 0,0 C -1,1 C 90 % 15 lf 1006,5 hPa 0,0 l/m 0 min 2 min 0 W/m 18,0 km/h (3 Bft) 97,87 %
11.02.2018 01:28 0,9 C 0,0 C -1,1 C 90 % 15 lf 1006,5 hPa 0,0 l/m 0 min 2 min 0 W/m 18,0 km/h (3 Bft) 100,00 %
11.02.2018 01:30 0,9 C 0,0 C -1,1 C 91 % 15 lf 1006,4 hPa 0,0 l/m 0 min 0 min 0 W/m 18,0 km/h (3 Bft) 95,74 %
11.02.2018 01:32 0,9 C 0,0 C -1,1 C 91 % 15 lf 1006,3 hPa 0,0 l/m 0 min 2 min 0 W/m 15,8 km/h (3 Bft) 95,74 %
11.02.2018 01:34 0,9 C 0,0 C -1,1 C 91 % 15 lf 1006,3 hPa 0,0 l/m 0 min 2 min 0 W/m 18,0 km/h (3 Bft) 97,87 %
11.02.2018 01:36 0,8 C 0,0 C -1,1 C 91 % 15 lf 1006,3 hPa 0,0 l/m 0 min 2 min 0 W/m 22,5 km/h (4 Bft) 97,83 %
11.02.2018 01:38 0,8 C 0,0 C -1,1 C 91 % 15 lf 1006,2 hPa 0,0 l/m 0 min 2 min 0 W/m 20,3 km/h (4 Bft) 97,87 %
11.02.2018 01:40 0,8 C 0,0 C -1,1 C 91 % 15 lf 1006,2 hPa 0,0 l/m 0 min 2 min 0 W/m 22,5 km/h (4 Bft) 93,62 %
11.02.2018 01:42 0,7 C 0,0 C -1,1 C 92 % 15 lf 1006,1 hPa 0,0 l/m 0 min 2 min 0 W/m 20,3 km/h (4 Bft) 97,87 %
11.02.2018 01:44 0,7 C 0,0 C -1,1 C 92 % 15 lf 1006,1 hPa 0,0 l/m 0 min 0 min 0 W/m 20,3 km/h (4 Bft) 95,74 %
11.02.2018 01:46 0,7 C 0,0 C -1,1 C 92 % 15 lf 1006,0 hPa 0,0 l/m 0 min 2 min 0 W/m 18,0 km/h (3 Bft) 93,62 %
11.02.2018 01:48 0,7 C 0,0 C -1,1 C 92 % 15 lf 1006,0 hPa 0,0 l/m 0 min 2 min 0 W/m 22,5 km/h (4 Bft) 91,30 %
11.02.2018 01:50 0,7 C 0,0 C -1,1 C 92 % 15 lf 1005,9 hPa 0,0 l/m 0 min 2 min 0 W/m 20,3 km/h (4 Bft) 95,74 %
11.02.2018 01:52 0,6 C 0,0 C -1,1 C 92 % 15 lf 1005,9 hPa 0,0 l/m 0 min 0 min 0 W/m 13,5 km/h (3 Bft) 95,74 %
11.02.2018 01:54 0,6 C 0,0 C -1,1 C 93 % 15 lf 1005,8 hPa 0,0 l/m 0 min 0 min 0 W/m 22,5 km/h (4 Bft) 95,74 %
11.02.2018 01:56 0,6 C 0,0 C -1,1 C 93 % 15 lf 1005,7 hPa 0,0 l/m 0 min 2 min 0 W/m 20,3 km/h (4 Bft) 91,49 %
11.02.2018 01:58 0,6 C 0,0 C -1,1 C 93 % 15 lf 1005,7 hPa 0,0 l/m 0 min 2 min 0 W/m 22,5 km/h (4 Bft) 95,74 %
11.02.2018 02:00 0,6 C 0,0 C -1,1 C 93 % 15 lf 1005,6 hPa 0,0 l/m 0 min 2 min 0 W/m 31,5 km/h (5 Bft) 97,83 %
11.02.2018 02:02 0,5 C 0,0 C -1,1 C 93 % 15 lf 1005,5 hPa 0,0 l/m 0 min 2 min 0 W/m 24,8 km/h (4 Bft) 97,87 %
11.02.2018 02:04 0,5 C 0,0 C -1,1 C 93 % 15 lf 1005,5 hPa 0,0 l/m 0 min 2 min 0 W/m 24,8 km/h (4 Bft) 95,74 %
11.02.2018 02:06 0,5 C 0,0 C -1,1 C 93 % 15 lf 1005,5 hPa 0,0 l/m 0 min 2 min 0 W/m 22,5 km/h (4 Bft) 93,75 %
11.02.2018 02:08 0,5 C 0,0 C -1,1 C 94 % 15 lf 1005,4 hPa 0,0 l/m 0 min 2 min 0 W/m 24,8 km/h (4 Bft) 95,74 %
11.02.2018 02:10 0,5 C 0,0 C -1,1 C 94 % 15 lf 1005,4 hPa 0,0 l/m 0 min 2 min 0 W/m 22,5 km/h (4 Bft) 93,48 %
11.02.2018 02:12 0,5 C 0,0 C -1,1 C 94 % 15 lf 1005,4 hPa 0,0 l/m 0 min 2 min 0 W/m 29,3 km/h (5 Bft) 89,36 %
11.02.2018 02:14 0,5 C 0,0 C -1,1 C 94 % 15 lf 1005,3 hPa 0,0 l/m 0 min 2 min 0 W/m 27,0 km/h (4 Bft) 95,74 %
11.02.2018 02:16 0,5 C 0,0 C -1,1 C 94 % 15 lf 1005,2 hPa 0,0 l/m 0 min 2 min 0 W/m 18,0 km/h (3 Bft) 97,87 %
11.02.2018 02:18 0,5 C 0,0 C -1,1 C 94 % 15 lf 1005,1 hPa 0,0 l/m 0 min 2 min 0 W/m 18,0 km/h (3 Bft) 97,87 %
11.02.2018 02:20 0,5 C 0,0 C -1,1 C 94 % 15 lf 1005,1 hPa 0,0 l/m 0 min 2 min 0 W/m 24,8 km/h (4 Bft) 91,49 %
11.02.2018 02:22 0,5 C 0,0 C -1,1 C 94 % 15 lf 1005,1 hPa 0,0 l/m 0 min 2 min 0 W/m 24,8 km/h (4 Bft) 97,83 %
11.02.2018 02:24 0,5 C 0,0 C -1,1 C 94 % 15 lf 1004,9 hPa 0,0 l/m 0 min 2 min 0 W/m 24,8 km/h (4 Bft) 97,87 %
11.02.2018 02:26 0,5 C 0,0 C -1,1 C 94 % 15 lf 1004,9 hPa 0,0 l/m 0 min 2 min 0 W/m 18,0 km/h (3 Bft) 97,87 %
11.02.2018 02:28 0,5 C 0,0 C -1,1 C 94 % 15 lf 1004,7 hPa 0,0 l/m 0 min 2 min 0 W/m 15,8 km/h (3 Bft) 95,74 %
11.02.2018 02:30 0,5 C 0,0 C -1,1 C 94 % 15 lf 1004,7 hPa 0,0 l/m 0 min 2 min 0 W/m 22,5 km/h (4 Bft) 95,74 %
11.02.2018 02:32 0,5 C 0,0 C -1,1 C 95 % 15 lf 1004,6 hPa 0,0 l/m 0 min 2 min 0 W/m 18,0 km/h (3 Bft) 95,74 %
11.02.2018 02:34 0,5 C 0,0 C -1,1 C 95 % 15 lf 1004,5 hPa 0,0 l/m 0 min 2 min 0 W/m 20,3 km/h (4 Bft) 97,83 %
11.02.2018 02:36 0,5 C 0,0 C -1,1 C 95 % 15 lf 1004,5 hPa 0,0 l/m 0 min 2 min 0 W/m 15,8 km/h (3 Bft) 93,62 %
11.02.2018 02:38 0,5 C 0,0 C -1,1 C 95 % 15 lf 1004,5 hPa 0,0 l/m 0 min 2 min 0 W/m 22,5 km/h (4 Bft) 97,87 %
11.02.2018 02:40 0,5 C 0,0 C -1,1 C 95 % 15 lf 1004,4 hPa 0,0 l/m 0 min 0 min 0 W/m 18,0 km/h (3 Bft) 97,87 %
11.02.2018 02:42 0,5 C 0,0 C -1,1 C 95 % 15 lf 1004,4 hPa 0,0 l/m 0 min 2 min 0 W/m 22,5 km/h (4 Bft) 97,87 %
11.02.2018 02:44 0,5 C 0,0 C -1,1 C 95 % 15 lf 1004,3 hPa 0,2 l/m 0 min 2 min 0 W/m 24,8 km/h (4 Bft) 95,74 %
11.02.2018 02:46 0,5 C 0,0 C -1,1 C 95 % 15 lf 1004,2 hPa 0,0 l/m 0 min 2 min 0 W/m 24,8 km/h (4 Bft) 95,65 %
11.02.2018 02:48 0,5 C 0,0 C -1,1 C 95 % 15 lf 1004,1 hPa 0,0 l/m 0 min 2 min 0 W/m 18,0 km/h (3 Bft) 97,87 %
11.02.2018 02:50 0,5 C 0,0 C -1,1 C 95 % 15 lf 1004,0 hPa 0,0 l/m 0 min 2 min 0 W/m 27,0 km/h (4 Bft) 95,74 %
11.02.2018 02:52 0,5 C 0,0 C -1,1 C 95 % 15 lf 1004,0 hPa 0,0 l/m 0 min 2 min 0 W/m 27,0 km/h (4 Bft) 93,62 %
11.02.2018 02:54 0,5 C 0,6 C -1,1 C 95 % 15 lf 1003,9 hPa 0,0 l/m 0 min 2 min 0 W/m 22,5 km/h (4 Bft) 97,87 %
11.02.2018 02:56 0,5 C 0,6 C -1,1 C 95 % 15 lf 1003,9 hPa 0,0 l/m 0 min 2 min 0 W/m 31,5 km/h (5 Bft) 95,74 %
11.02.2018 02:58 0,5 C 0,6 C -1,1 C 95 % 15 lf 1003,8 hPa 0,0 l/m 0 min 2 min 0 W/m 22,5 km/h (4 Bft) 95,65 %
11.02.2018 03:00 0,5 C 0,6 C -0,6 C 95 % 15 lf 1003,8 hPa 0,0 l/m 0 min 2 min 0 W/m 22,5 km/h (4 Bft) 89,36 %
11.02.2018 03:02 0,6 C 0,6 C -0,6 C 95 % 15 lf 1003,8 hPa 0,2 l/m 0 min 2 min 0 W/m 24,8 km/h (4 Bft) 95,74 %
11.02.2018 03:04 0,6 C 0,6 C -0,6 C 95 % 15 lf 1003,8 hPa 0,0 l/m 0 min 2 min 0 W/m 18,0 km/h (3 Bft) 93,62 %
11.02.2018 03:06 0,6 C 0,6 C -0,6 C 95 % 15 lf 1003,7 hPa 0,0 l/m 0 min 2 min 0 W/m 22,5 km/h (4 Bft) 97,87 %
11.02.2018 03:08 0,6 C 0,6 C -0,6 C 95 % 15 lf 1003,7 hPa 0,0 l/m 0 min 2 min 0 W/m 18,0 km/h (3 Bft) 95,74 %
11.02.2018 03:10 0,6 C 0,6 C -0,6 C 95 % 15 lf 1003,5 hPa 0,0 l/m 0 min 2 min 0 W/m 20,3 km/h (4 Bft) 97,83 %
11.02.2018 03:12 0,7 C 0,6 C -0,6 C 95 % 15 lf 1003,5 hPa 0,0 l/m 0 min 0 min 0 W/m 20,3 km/h (4 Bft) 91,49 %
11.02.2018 03:14 0,7 C 0,6 C -0,6 C 96 % 15 lf 1003,4 hPa 0,0 l/m 0 min 2 min 0 W/m 22,5 km/h (4 Bft) 95,74 %
11.02.2018 03:16 0,7 C 0,6 C -0,6 C 96 % 15 lf 1003,3 hPa 0,0 l/m 0 min 2 min 0 W/m 24,8 km/h (4 Bft) 91,49 %
11.02.2018 03:18 0,7 C 0,6 C -0,6 C 96 % 15 lf 1003,3 hPa 0,0 l/m 0 min 2 min 0 W/m 27,0 km/h (4 Bft) 95,74 %
11.02.2018 03:20 0,7 C 0,6 C -0,6 C 96 % 15 lf 1003,2 hPa 0,0 l/m 0 min 2 min 0 W/m 22,5 km/h (4 Bft) 93,48 %
11.02.2018 03:22 0,7 C 0,6 C -0,6 C 96 % 15 lf 1003,1 hPa 0,2 l/m 0 min 2 min 0 W/m 20,3 km/h (4 Bft) 93,62 %
11.02.2018 03:24 0,8 C 0,6 C -0,6 C 96 % 15 lf 1003,1 hPa 0,0 l/m 0 min 2 min 0 W/m 15,8 km/h (3 Bft) 91,49 %
11.02.2018 03:26 0,8 C 0,6 C -0,6 C 96 % 15 lf 1003,0 hPa 0,0 l/m 0 min 2 min 0 W/m 29,3 km/h (5 Bft) 93,62 %
11.02.2018 03:28 0,8 C 0,6 C -0,6 C 96 % 15 lf 1002,9 hPa 0,0 l/m 0 min 2 min 0 W/m 22,5 km/h (4 Bft) 89,36 %
11.02.2018 03:30 0,8 C 0,6 C -0,6 C 96 % 15 lf 1002,8 hPa 0,0 l/m 0 min 2 min 0 W/m 15,8 km/h (3 Bft) 93,62 %
11.02.2018 03:32 0,8 C 0,6 C -0,6 C 96 % 15 lf 1002,8 hPa 0,0 l/m 0 min 0 min 0 W/m 20,3 km/h (4 Bft) 91,30 %
11.02.2018 03:34 0,8 C 0,6 C -0,6 C 96 % 15 lf 1002,8 hPa 0,0 l/m 0 min 2 min 0 W/m 15,8 km/h (3 Bft) 93,62 %
11.02.2018 03:36 0,8 C 0,6 C -0,6 C 96 % 15 lf 1002,8 hPa 0,0 l/m 0 min 2 min 0 W/m 20,3 km/h (4 Bft) 93,62 %
11.02.2018 03:38 0,8 C 0,6 C -0,6 C 96 % 15 lf 1002,7 hPa 0,0 l/m 0 min 2 min 0 W/m 27,0 km/h (4 Bft) 93,62 %
11.02.2018 03:40 0,8 C 0,6 C -0,6 C 96 % 15 lf 1002,6 hPa 0,2 l/m 0 min 2 min 0 W/m 22,5 km/h (4 Bft) 93,62 %
11.02.2018 03:42 0,8 C 0,6 C -0,6 C 96 % 15 lf 1002,5 hPa 0,0 l/m 0 min 2 min 0 W/m 24,8 km/h (4 Bft) 91,49 %
11.02.2018 03:44 0,8 C 0,6 C -0,6 C 96 % 15 lf 1002,4 hPa 0,0 l/m 0 min 2 min 0 W/m 20,3 km/h (4 Bft) 93,48 %
11.02.2018 03:46 0,7 C 0,6 C -0,6 C 96 % 15 lf 1002,3 hPa 0,0 l/m 0 min 2 min 0 W/m 20,3 km/h (4 Bft) 95,74 %
11.02.2018 03:48 0,7 C 0,6 C -0,6 C 96 % 15 lf 1002,2 hPa 0,0 l/m 0 min 2 min 0 W/m 20,3 km/h (4 Bft) 95,74 %
11.02.2018 03:50 0,7 C 0,6 C -0,6 C 96 % 15 lf 1002,2 hPa 0,0 l/m 0 min 2 min 0 W/m 22,5 km/h (4 Bft) 93,62 %
11.02.2018 03:52 0,7 C 0,6 C -0,6 C 96 % 15 lf 1002,2 hPa 0,0 l/m 0 min 0 min 0 W/m 15,8 km/h (3 Bft) 100,00 %
11.02.2018 03:54 0,7 C 0,6 C -0,6 C 96 % 15 lf 1002,2 hPa 0,0 l/m 0 min 0 min 0 W/m 15,8 km/h (3 Bft) 100,00 %
11.02.2018 03:56 0,7 C 0,6 C -0,6 C 96 % 15 lf 1002,1 hPa 0,0 l/m 0 min 0 min 0 W/m 20,3 km/h (4 Bft) 100,00 %
11.02.2018 03:58 0,7 C 0,6 C -0,6 C 96 % 15 lf 1002,0 hPa 0,0 l/m 0 min 0 min 0 W/m 20,3 km/h (4 Bft) 97,87 %
11.02.2018 04:00 0,7 C 0,6 C -0,6 C 96 % 15 lf 1002,0 hPa 0,0 l/m 0 min 0 min 0 W/m 20,3 km/h (4 Bft) 100,00 %
11.02.2018 04:02 0,7 C 0,6 C -0,6 C 96 % 15 lf 1001,9 hPa 0,0 l/m 0 min 0 min 0 W/m 18,0 km/h (3 Bft) 100,00 %
11.02.2018 04:04 0,7 C 0,6 C -0,6 C 96 % 15 lf 1001,8 hPa 0,0 l/m 0 min 0 min 0 W/m 18,0 km/h (3 Bft) 97,87 %
11.02.2018 04:06 0,7 C 0,6 C -0,6 C 96 % 15 lf 1001,8 hPa 0,0 l/m 0 min 0 min 0 W/m 15,8 km/h (3 Bft) 97,87 %
11.02.2018 04:08 0,7 C 0,6 C -0,6 C 96 % 15 lf 1001,7 hPa 0,0 l/m 0 min 0 min 0 W/m 13,5 km/h (3 Bft) 100,00 %
11.02.2018 04:10 0,7 C 0,6 C -1,1 C 96 % 15 lf 1001,8 hPa 0,0 l/m 0 min 2 min 0 W/m 15,8 km/h (3 Bft) 100,00 %
11.02.2018 04:12 0,7 C 0,6 C -1,1 C 96 % 15 lf 1001,7 hPa 0,0 l/m 0 min 2 min 0 W/m 15,8 km/h (3 Bft) 95,74 %
11.02.2018 04:14 0,7 C 0,0 C -1,1 C 96 % 15 lf 1001,6 hPa 0,2 l/m 0 min 2 min 0 W/m 22,5 km/h (4 Bft) 100,00 %
11.02.2018 04:16 0,7 C 0,0 C -1,1 C 96 % 15 lf 1001,5 hPa 0,0 l/m 0 min 2 min 0 W/m 15,8 km/h (3 Bft) 100,00 %
11.02.2018 04:18 0,7 C 0,0 C -1,1 C 96 % 15 lf 1001,4 hPa 0,0 l/m 0 min 2 min 0 W/m 15,8 km/h (3 Bft) 97,87 %
11.02.2018 04:20 0,6 C 0,6 C -0,6 C 96 % 15 lf 1001,3 hPa 0,0 l/m 0 min 0 min 0 W/m 18,0 km/h (3 Bft) 97,83 %
11.02.2018 04:22 0,7 C 0,6 C -0,6 C 96 % 15 lf 1001,2 hPa 0,0 l/m 0 min 2 min 0 W/m 22,5 km/h (4 Bft) 100,00 %
11.02.2018 04:24 0,7 C 0,6 C -0,6 C 96 % 15 lf 1001,2 hPa 0,0 l/m 0 min 2 min 0 W/m 22,5 km/h (4 Bft) 100,00 %
11.02.2018 04:26 0,7 C 0,6 C -0,6 C 96 % 15 lf 1001,2 hPa 0,0 l/m 0 min 0 min 0 W/m 18,0 km/h (3 Bft) 97,87 %
11.02.2018 04:28 0,7 C 0,6 C -0,6 C 96 % 15 lf 1001,2 hPa 0,0 l/m 0 min 2 min 0 W/m 18,0 km/h (3 Bft) 100,00 %
11.02.2018 04:30 0,6 C 0,6 C -0,6 C 96 % 15 lf 1001,0 hPa 0,2 l/m 0 min 2 min 0 W/m 15,8 km/h (3 Bft) 100,00 %
11.02.2018 04:32 0,7 C 0,6 C -0,6 C 96 % 15 lf 1001,1 hPa 0,0 l/m 0 min 2 min 0 W/m 15,8 km/h (3 Bft) 97,87 %
11.02.2018 04:34 0,7 C 0,6 C -0,6 C 96 % 15 lf 1001,0 hPa 0,0 l/m 0 min 2 min 0 W/m 15,8 km/h (3 Bft) 100,00 %
11.02.2018 04:36 0,7 C 0,6 C -0,6 C 96 % 15 lf 1000,9 hPa 0,0 l/m 0 min 2 min 0 W/m 15,8 km/h (3 Bft) 97,87 %
11.02.2018 04:38 0,7 C 0,6 C -0,6 C 96 % 15 lf 1000,9 hPa 0,0 l/m 0 min 2 min 0 W/m 18,0 km/h (3 Bft) 95,74 %
11.02.2018 04:40 0,7 C 0,6 C -0,6 C 96 % 15 lf 1000,8 hPa 0,0 l/m 0 min 2 min 0 W/m 13,5 km/h (3 Bft) 95,74 %
11.02.2018 04:42 0,7 C 0,6 C -0,6 C 96 % 15 lf 1000,8 hPa 0,0 l/m 0 min 2 min 0 W/m 22,5 km/h (4 Bft) 95,65 %
11.02.2018 04:44 0,7 C 0,6 C -0,6 C 96 % 15 lf 1000,7 hPa 0,0 l/m 0 min 2 min 0 W/m 15,8 km/h (3 Bft) 91,49 %
11.02.2018 04:46 0,7 C 0,6 C -0,6 C 96 % 15 lf 1000,8 hPa 0,0 l/m 0 min 2 min 0 W/m 15,8 km/h (3 Bft) 97,87 %
11.02.2018 04:48 0,8 C 0,6 C -0,6 C 96 % 15 lf 1000,7 hPa 0,0 l/m 0 min 2 min 0 W/m 20,3 km/h (4 Bft) 95,74 %
11.02.2018 04:50 0,8 C 0,6 C -0,6 C 96 % 15 lf 1000,7 hPa 0,2 l/m 0 min 2 min 0 W/m 24,8 km/h (4 Bft) 97,87 %
11.02.2018 04:52 0,9 C 1,1 C 0,0 C 96 % 15 lf 1000,7 hPa 0,0 l/m 0 min 2 min 0 W/m 20,3 km/h (4 Bft) 97,87 %
11.02.2018 04:54 0,9 C 1,1 C 0,0 C 96 % 15 lf 1000,7 hPa 0,0 l/m 0 min 2 min 0 W/m 15,8 km/h (3 Bft) 93,48 %
11.02.2018 04:56 1,0 C 1,1 C 0,0 C 96 % 15 lf 1000,7 hPa 0,0 l/m 0 min 2 min 0 W/m 22,5 km/h (4 Bft) 95,74 %
11.02.2018 04:58 1,1 C 1,1 C 0,0 C 97 % 15 lf 1000,6 hPa 0,2 l/m 0 min 2 min 0 W/m 22,5 km/h (4 Bft) 95,74 %
11.02.2018 05:00 1,1 C 1,1 C 0,0 C 97 % 15 lf 1000,6 hPa 0,0 l/m 0 min 2 min 0 W/m 15,8 km/h (3 Bft) 93,62 %
11.02.2018 05:02 1,1 C 1,1 C 0,0 C 97 % 15 lf 1000,5 hPa 0,0 l/m 0 min 2 min 0 W/m 27,0 km/h (4 Bft) 91,49 %
11.02.2018 05:04 1,2 C 1,1 C 0,0 C 97 % 15 lf 1000,4 hPa 0,0 l/m 0 min 2 min 0 W/m 18,0 km/h (3 Bft) 95,74 %
11.02.2018 05:06 1,2 C 1,1 C 0,0 C 96 % 15 lf 1000,3 hPa 0,0 l/m 0 min 2 min 0 W/m 20,3 km/h (4 Bft) 97,83 %
11.02.2018 05:08 1,2 C 1,1 C 0,0 C 96 % 15 lf 1000,3 hPa 0,0 l/m 0 min 2 min 0 W/m 20,3 km/h (4 Bft) 95,74 %
11.02.2018 05:10 1,3 C 1,1 C 0,0 C 96 % 15 lf 1000,2 hPa 0,0 l/m 0 min 2 min 0 W/m 31,5 km/h (5 Bft) 95,74 %
11.02.2018 05:12 1,3 C 1,1 C 0,0 C 96 % 15 lf 1000,2 hPa 0,2 l/m 0 min 2 min 0 W/m 18,0 km/h (3 Bft) 95,74 %
11.02.2018 05:14 1,3 C 1,1 C 0,0 C 96 % 15 lf 1000,2 hPa 0,0 l/m 0 min 2 min 0 W/m 20,3 km/h (4 Bft) 93,62 %
11.02.2018 05:16 1,3 C 1,1 C 0,0 C 96 % 15 lf 1000,1 hPa 0,0 l/m 0 min 2 min 0 W/m 18,0 km/h (3 Bft) 95,65 %
11.02.2018 05:18 1,3 C 1,1 C 0,0 C 96 % 15 lf 1000,1 hPa 0,2 l/m 0 min 2 min 0 W/m 22,5 km/h (4 Bft) 91,49 %
11.02.2018 05:20 1,4 C 1,1 C 0,0 C 96 % 15 lf 1000,1 hPa 0,0 l/m 0 min 2 min 0 W/m 20,3 km/h (4 Bft) 89,36 %
11.02.2018 05:22 1,4 C 1,1 C 0,0 C 97 % 15 lf 1000,0 hPa 0,0 l/m 0 min 2 min 0 W/m 13,5 km/h (3 Bft) 93,62 %
11.02.2018 05:24 1,4 C 1,1 C 0,0 C 97 % 15 lf 999,9 hPa 0,0 l/m 0 min 2 min 0 W/m 20,3 km/h (4 Bft) 95,74 %
11.02.2018 05:26 1,4 C 1,1 C 0,0 C 97 % 15 lf 1000,0 hPa 0,0 l/m 0 min 2 min 0 W/m 18,0 km/h (3 Bft) 97,87 %
11.02.2018 05:28 1,4 C 1,1 C 0,0 C 97 % 15 lf 1000,0 hPa 0,0 l/m 0 min 2 min 0 W/m 15,8 km/h (3 Bft) 97,87 %
11.02.2018 05:30 1,4 C 1,1 C 0,0 C 97 % 15 lf 999,9 hPa 0,2 l/m 0 min 2 min 0 W/m 18,0 km/h (3 Bft) 95,65 %
11.02.2018 05:32 1,4 C 1,1 C 0,0 C 97 % 15 lf 999,8 hPa 0,0 l/m 0 min 2 min 0 W/m 20,3 km/h (4 Bft) 97,87 %
11.02.2018 05:34 1,4 C 1,1 C 0,0 C 97 % 15 lf 999,7 hPa 0,0 l/m 0 min 2 min 0 W/m 20,3 km/h (4 Bft) 95,74 %
11.02.2018 05:35 1,4 C 1,1 C 0,0 C 97 % 15 lf 999,7 hPa 0,2 l/m 0 min 1 min 0 W/m 20,3 km/h (4 Bft) 99,12 %
11.02.2018 05:40 1,5 C 1,1 C 0,0 C 97 % 15 lf 999,7 hPa 0,0 l/m 0 min 5 min 0 W/m 15,8 km/h (3 Bft) 100,00 %
11.02.2018 05:42 1,5 C 1,1 C 0,0 C 97 % 15 lf 999,6 hPa 0,2 l/m 0 min 2 min 0 W/m 20,3 km/h (4 Bft) 97,87 %
11.02.2018 05:44 1,6 C 1,1 C 0,0 C 97 % 15 lf 999,7 hPa 0,0 l/m 0 min 2 min 0 W/m 18,0 km/h (3 Bft) 97,83 %
11.02.2018 05:46 1,6 C 1,1 C 0,0 C 97 % 15 lf 999,6 hPa 0,0 l/m 0 min 2 min 0 W/m 20,3 km/h (4 Bft) 100,00 %
11.02.2018 05:48 1,6 C 1,1 C 0,0 C 97 % 15 lf 999,6 hPa 0,2 l/m 0 min 2 min 0 W/m 13,5 km/h (3 Bft) 97,87 %
11.02.2018 05:50 1,6 C 1,1 C 0,0 C 97 % 15 lf 999,6 hPa 0,0 l/m 0 min 2 min 0 W/m 11,3 km/h (2 Bft) 94,92 %
11.02.2018 05:52 1,6 C 1,7 C 0,6 C 97 % 15 lf 999,6 hPa 0,0 l/m 0 min 2 min 0 W/m 13,5 km/h (3 Bft) 97,14 %
11.02.2018 05:54 1,7 C 1,7 C 0,6 C 97 % 15 lf 999,5 hPa 0,2 l/m 0 min 2 min 0 W/m 15,8 km/h (3 Bft) 93,62 %
11.02.2018 05:56 1,7 C 1,7 C 0,6 C 97 % 15 lf 999,6 hPa 0,0 l/m 0 min 2 min 0 W/m 22,5 km/h (4 Bft) 97,83 %
11.02.2018 05:58 1,7 C 1,7 C 0,6 C 97 % 15 lf 999,6 hPa 0,0 l/m 0 min 2 min 0 W/m 13,5 km/h (3 Bft) 97,87 %
11.02.2018 06:00 1,7 C 1,7 C 0,6 C 97 % 15 lf 999,7 hPa 0,2 l/m 0 min 0 min 0 W/m 11,3 km/h (2 Bft) 93,62 %
11.02.2018 06:02 1,7 C 1,7 C 0,6 C 97 % 15 lf 999,6 hPa 0,0 l/m 0 min 0 min 0 W/m 11,3 km/h (2 Bft) 97,87 %
11.02.2018 06:04 1,7 C 1,7 C 0,6 C 97 % 15 lf 999,6 hPa 0,0 l/m 0 min 0 min 0 W/m 15,8 km/h (3 Bft) 95,74 %
11.02.2018 06:06 1,8 C 1,7 C 0,6 C 97 % 15 lf 999,6 hPa 0,0 l/m 0 min 0 min 0 W/m 22,5 km/h (4 Bft) 95,74 %
11.02.2018 06:08 1,8 C 2,2 C 0,6 C 97 % 15 lf 999,5 hPa 0,2 l/m 0 min 0 min 0 W/m 27,0 km/h (4 Bft) 93,48 %
11.02.2018 06:10 1,9 C 2,2 C 0,6 C 97 % 15 lf 999,4 hPa 0,0 l/m 0 min 2 min 0 W/m 15,8 km/h (3 Bft) 95,74 %
11.02.2018 06:12 2,0 C 2,2 C 1,1 C 97 % 15 lf 999,4 hPa 0,0 l/m 0 min 0 min 0 W/m 27,0 km/h (4 Bft) 97,87 %
11.02.2018 06:14 2,1 C 2,2 C 1,1 C 97 % 15 lf 999,3 hPa 0,0 l/m 0 min 0 min 0 W/m 24,8 km/h (4 Bft) 97,87 %
11.02.2018 06:16 2,2 C 2,2 C 1,1 C 97 % 15 lf 999,4 hPa 0,0 l/m 0 min 0 min 0 W/m 18,0 km/h (3 Bft) 95,74 %
11.02.2018 06:18 2,3 C 2,2 C 1,1 C 97 % 15 lf 999,3 hPa 0,2 l/m 0 min 0 min 0 W/m 29,3 km/h (5 Bft) 97,87 %
11.02.2018 06:20 2,3 C 2,2 C 1,1 C 97 % 15 lf 999,2 hPa 0,0 l/m 0 min 2 min 0 W/m 24,8 km/h (4 Bft) 95,65 %
11.02.2018 06:22 2,4 C 2,2 C 1,1 C 97 % 15 lf 999,3 hPa 0,0 l/m 0 min 2 min 0 W/m 24,8 km/h (4 Bft) 93,62 %
11.02.2018 06:24 2,5 C 2,8 C 1,1 C 97 % 15 lf 999,2 hPa 0,0 l/m 0 min 2 min 0 W/m 22,5 km/h (4 Bft) 93,62 %
11.02.2018 06:26 2,5 C 2,8 C 1,1 C 97 % 15 lf 999,1 hPa 0,0 l/m 0 min 2 min 0 W/m 20,3 km/h (4 Bft) 97,87 %
11.02.2018 06:28 2,6 C 2,8 C 1,1 C 97 % 15 lf 999,2 hPa 0,0 l/m 0 min 0 min 0 W/m 22,5 km/h (4 Bft) 95,74 %
11.02.2018 06:30 2,6 C 2,8 C 1,1 C 97 % 15 lf 999,2 hPa 0,0 l/m 0 min 0 min 0 W/m 33,8 km/h (5 Bft) 97,87 %
11.02.2018 06:32 2,7 C 2,8 C 1,1 C 97 % 15 lf 999,2 hPa 0,0 l/m 0 min 0 min 0 W/m 31,5 km/h (5 Bft) 93,48 %
11.02.2018 06:34 2,7 C 2,8 C 1,1 C 97 % 15 lf 999,1 hPa 0,0 l/m 0 min 0 min 0 W/m 27,0 km/h (4 Bft) 93,62 %
11.02.2018 06:36 2,7 C 2,8 C 1,1 C 97 % 15 lf 999,0 hPa 0,0 l/m 0 min 0 min 0 W/m 29,3 km/h (5 Bft) 95,74 %
11.02.2018 06:38 2,7 C 2,8 C 1,1 C 97 % 15 lf 999,0 hPa 0,2 l/m 0 min 0 min 0 W/m 33,8 km/h (5 Bft) 95,74 %
11.02.2018 06:40 2,8 C 2,8 C 1,1 C 97 % 15 lf 998,9 hPa 0,0 l/m 0 min 0 min 0 W/m 27,0 km/h (4 Bft) 93,62 %
11.02.2018 06:42 2,8 C 2,8 C 1,1 C 97 % 15 lf 998,9 hPa 0,0 l/m 0 min 0 min 0 W/m 33,8 km/h (5 Bft) 93,62 %
11.02.2018 06:44 2,8 C 2,8 C 1,1 C 97 % 15 lf 999,0 hPa 0,0 l/m 0 min 0 min 0 W/m 24,8 km/h (4 Bft) 97,83 %
11.02.2018 06:46 2,8 C 2,8 C 1,7 C 97 % 15 lf 998,9 hPa 0,0 l/m 0 min 0 min 0 W/m 29,3 km/h (5 Bft) 97,87 %
11.02.2018 06:48 2,8 C 2,8 C 1,1 C 97 % 15 lf 998,8 hPa 0,0 l/m 0 min 2 min 0 W/m 18,0 km/h (3 Bft) 97,87 %
11.02.2018 06:50 2,8 C 2,8 C 1,7 C 97 % 15 lf 998,8 hPa 0,0 l/m 0 min 2 min 0 W/m 33,8 km/h (5 Bft) 96,61 %
11.02.2018 06:52 2,9 C 2,8 C 1,7 C 97 % 15 lf 998,7 hPa 0,0 l/m 0 min 2 min 0 W/m 22,5 km/h (4 Bft) 97,14 %
11.02.2018 06:54 2,9 C 2,8 C 1,7 C 97 % 15 lf 998,7 hPa 0,0 l/m 0 min 2 min 0 W/m 31,5 km/h (5 Bft) 97,83 %
11.02.2018 06:56 2,9 C 2,8 C 1,7 C 97 % 15 lf 998,8 hPa 0,0 l/m 0 min 2 min 0 W/m 31,5 km/h (5 Bft) 89,36 %
11.02.2018 06:58 2,9 C 2,8 C 1,7 C 97 % 15 lf 998,8 hPa 0,0 l/m 0 min 0 min 0 W/m 29,3 km/h (5 Bft) 97,87 %
11.02.2018 07:00 2,9 C 2,8 C 1,7 C 97 % 15 lf 998,8 hPa 0,0 l/m 0 min 2 min 0 W/m 33,8 km/h (5 Bft) 95,74 %
11.02.2018 07:02 2,9 C 2,8 C 1,7 C 97 % 15 lf 998,8 hPa 0,0 l/m 0 min 2 min 0 W/m 36,0 km/h (5 Bft) 97,87 %
11.02.2018 07:04 2,9 C 2,8 C 1,7 C 97 % 15 lf 998,7 hPa 0,2 l/m 0 min 2 min 0 W/m 36,0 km/h (5 Bft) 89,36 %
11.02.2018 07:06 3,0 C 2,8 C 1,7 C 97 % 15 lf 998,7 hPa 0,0 l/m 0 min 2 min 0 W/m 33,8 km/h (5 Bft) 95,65 %
11.02.2018 07:08 3,0 C 2,8 C 1,7 C 97 % 15 lf 998,7 hPa 0,0 l/m 0 min 2 min 0 W/m 22,5 km/h (4 Bft) 95,74 %
11.02.2018 07:10 3,0 C 2,8 C 1,7 C 97 % 15 lf 998,6 hPa 0,0 l/m 0 min 2 min 0 W/m 29,3 km/h (5 Bft) 95,74 %
11.02.2018 07:12 3,0 C 2,8 C 1,7 C 97 % 15 lf 998,7 hPa 0,0 l/m 0 min 2 min 0 W/m 33,8 km/h (5 Bft) 91,49 %
11.02.2018 07:14 3,0 C 2,8 C 1,7 C 97 % 15 lf 998,7 hPa 0,0 l/m 0 min 2 min 0 W/m 38,3 km/h (5 Bft) 97,87 %
11.02.2018 07:16 3,0 C 2,8 C 1,7 C 97 % 15 lf 998,5 hPa 0,0 l/m 0 min 2 min 0 W/m 29,3 km/h (5 Bft) 93,62 %
11.02.2018 07:18 3,0 C 2,8 C 1,7 C 97 % 15 lf 998,6 hPa 0,0 l/m 0 min 0 min 0 W/m 27,0 km/h (4 Bft) 95,65 %
11.02.2018 07:20 3,0 C 2,8 C 1,7 C 97 % 15 lf 998,6 hPa 0,0 l/m 0 min 0 min 0 W/m 31,5 km/h (5 Bft) 93,22 %
11.02.2018 07:22 3,1 C 2,8 C 1,7 C 97 % 15 lf 998,6 hPa 0,0 l/m 0 min 2 min 0 W/m 31,5 km/h (5 Bft) 94,29 %
11.02.2018 07:24 3,1 C 2,8 C 1,7 C 97 % 15 lf 998,7 hPa 0,0 l/m 0 min 2 min 0 W/m 29,3 km/h (5 Bft) 93,62 %
11.02.2018 07:26 3,1 C 2,8 C 1,7 C 97 % 15 lf 998,6 hPa 0,0 l/m 0 min 0 min 0 W/m 20,3 km/h (4 Bft) 93,62 %
11.02.2018 07:28 3,1 C 2,8 C 1,7 C 97 % 15 lf 998,6 hPa 0,0 l/m 0 min 0 min 0 W/m 20,3 km/h (4 Bft) 87,23 %
11.02.2018 07:30 3,1 C 2,8 C 1,7 C 97 % 15 lf 998,6 hPa 0,0 l/m 0 min 0 min 0 W/m 33,8 km/h (5 Bft) 93,48 %
11.02.2018 07:32 3,1 C 2,8 C 1,7 C 97 % 15 lf 998,6 hPa 0,0 l/m 0 min 0 min 0 W/m 31,5 km/h (5 Bft) 93,62 %
11.02.2018 07:34 3,1 C 2,8 C 1,7 C 97 % 15 lf 998,7 hPa 0,0 l/m 0 min 0 min 0 W/m 20,3 km/h (4 Bft) 93,62 %
11.02.2018 07:36 3,2 C 2,8 C 1,7 C 97 % 15 lf 998,7 hPa 0,0 l/m 0 min 0 min 0 W/m 31,5 km/h (5 Bft) 95,74 %
11.02.2018 07:38 3,2 C 2,8 C 1,7 C 97 % 15 lf 998,7 hPa 0,0 l/m 0 min 0 min 0 W/m 27,0 km/h (4 Bft) 95,74 %
11.02.2018 07:40 3,2 C 2,8 C 1,7 C 97 % 15 lf 998,6 hPa 0,0 l/m 0 min 0 min 0 W/m 24,8 km/h (4 Bft) 97,87 %
11.02.2018 07:42 3,2 C 2,8 C 1,7 C 97 % 15 lf 998,6 hPa 0,0 l/m 0 min 0 min 0 W/m 22,5 km/h (4 Bft) 97,83 %
11.02.2018 07:44 3,2 C 2,8 C 1,7 C 97 % 15 lf 998,5 hPa 0,0 l/m 0 min 0 min 0 W/m 36,0 km/h (5 Bft) 97,87 %
11.02.2018 07:46 3,2 C 2,8 C 1,7 C 97 % 15 lf 998,5 hPa 0,0 l/m 0 min 0 min 0 W/m 24,8 km/h (4 Bft) 97,87 %
11.02.2018 07:48 3,3 C 3,3 C 1,7 C 97 % 15 lf 998,5 hPa 0,0 l/m 0 min 0 min 0 W/m 27,0 km/h (4 Bft) 97,87 %
11.02.2018 07:50 3,3 C 3,3 C 1,7 C 97 % 15 lf 998,4 hPa 0,0 l/m 0 min 0 min 0 W/m 22,5 km/h (4 Bft) 96,55 %
11.02.2018 07:52 3,3 C 3,3 C 1,7 C 97 % 15 lf 998,4 hPa 0,0 l/m 0 min 0 min 0 W/m 24,8 km/h (4 Bft) 97,22 %
11.02.2018 07:54 3,4 C 3,3 C 2,2 C 97 % 15 lf 998,4 hPa 0,0 l/m 0 min 2 min 0 W/m 36,0 km/h (5 Bft) 97,83 %
11.02.2018 07:56 3,4 C 3,3 C 2,2 C 97 % 15 lf 998,7 hPa 0,0 l/m 0 min 2 min 0 W/m 45,1 km/h (6 Bft) 95,74 %
11.02.2018 07:58 3,4 C 3,3 C 2,2 C 97 % 15 lf 998,5 hPa 0,0 l/m 0 min 0 min 0 W/m 22,5 km/h (4 Bft) 95,74 %
11.02.2018 08:00 3,5 C 3,3 C 2,2 C 97 % 15 lf 998,6 hPa 0,0 l/m 0 min 0 min 0 W/m 36,0 km/h (5 Bft) 97,87 %
11.02.2018 08:02 3,6 C 3,3 C 2,2 C 97 % 15 lf 998,7 hPa 0,0 l/m 0 min 0 min 0 W/m 38,3 km/h (5 Bft) 95,74 %
11.02.2018 08:04 3,6 C 3,3 C 2,2 C 97 % 15 lf 998,7 hPa 0,0 l/m 0 min 0 min 0 W/m 31,5 km/h (5 Bft) 97,83 %
11.02.2018 08:06 3,6 C 3,3 C 2,2 C 97 % 15 lf 998,7 hPa 0,0 l/m 0 min 2 min 0 W/m 27,0 km/h (4 Bft) 97,87 %
11.02.2018 08:08 3,7 C 3,3 C 2,2 C 97 % 15 lf 998,7 hPa 0,0 l/m 0 min 2 min 2 W/m 33,8 km/h (5 Bft) 97,87 %
11.02.2018 08:10 3,7 C 3,3 C 2,2 C 97 % 15 lf 998,7 hPa 0,0 l/m 0 min 2 min 0 W/m 38,3 km/h (5 Bft) 97,87 %
11.02.2018 08:12 3,7 C 3,3 C 2,2 C 97 % 15 lf 998,7 hPa 0,0 l/m 0 min 2 min 4 W/m 33,8 km/h (5 Bft) 97,87 %
11.02.2018 08:14 3,8 C 3,3 C 2,2 C 97 % 15 lf 998,7 hPa 0,0 l/m 0 min 2 min 3 W/m 38,3 km/h (5 Bft) 95,74 %
11.02.2018 08:16 3,8 C 3,3 C 2,2 C 97 % 15 lf 998,7 hPa 0,0 l/m 0 min 0 min 3 W/m 33,8 km/h (5 Bft) 100,00 %
11.02.2018 08:18 3,8 C 3,3 C 2,2 C 97 % 15 lf 998,7 hPa 0,0 l/m 0 min 0 min 5 W/m 36,0 km/h (5 Bft) 100,00 %
11.02.2018 08:20 3,8 C 3,3 C 2,2 C 97 % 15 lf 998,7 hPa 0,0 l/m 0 min 2 min 5 W/m 33,8 km/h (5 Bft) 96,61 %
11.02.2018 08:22 3,9 C 3,3 C 2,2 C 97 % 15 lf 998,8 hPa 0,0 l/m 0 min 2 min 5 W/m 24,8 km/h (4 Bft) 97,14 %
11.02.2018 08:24 3,9 C 3,3 C 2,2 C 96 % 15 lf 998,7 hPa 0,0 l/m 0 min 2 min 6 W/m 31,5 km/h (5 Bft) 95,74 %
11.02.2018 08:26 3,9 C 3,3 C 2,2 C 96 % 15 lf 998,9 hPa 0,0 l/m 0 min 2 min 7 W/m 51,8 km/h (7 Bft) 97,87 %
11.02.2018 08:28 4,0 C 3,3 C 2,2 C 96 % 15 lf 998,8 hPa 0,0 l/m 0 min 2 min 6 W/m 31,5 km/h (5 Bft) 97,83 %
11.02.2018 08:30 4,1 C 3,3 C 2,2 C 96 % 15 lf 998,7 hPa 0,0 l/m 0 min 2 min 1 W/m 31,5 km/h (5 Bft) 93,62 %
11.02.2018 08:32 4,1 C 3,3 C 2,2 C 96 % 15 lf 998,7 hPa 0,0 l/m 0 min 2 min 3 W/m 38,3 km/h (5 Bft) 95,74 %
11.02.2018 08:34 4,1 C 3,3 C 2,2 C 96 % 15 lf 998,7 hPa 0,0 l/m 0 min 2 min 10 W/m 42,8 km/h (6 Bft) 97,87 %
11.02.2018 08:36 4,1 C 3,3 C 2,2 C 96 % 15 lf 998,9 hPa 0,0 l/m 0 min 2 min 13 W/m 49,6 km/h (6 Bft) 97,87 %
11.02.2018 08:38 4,1 C 3,3 C 2,2 C 96 % 15 lf 998,8 hPa 0,0 l/m 0 min 2 min 10 W/m 31,5 km/h (5 Bft) 91,49 %
11.02.2018 08:40 4,1 C 3,3 C 2,2 C 96 % 15 lf 998,8 hPa 0,0 l/m 0 min 2 min 10 W/m 42,8 km/h (6 Bft) 97,83 %
11.02.2018 08:42 4,1 C 3,3 C 2,2 C 96 % 15 lf 998,8 hPa 0,0 l/m 0 min 0 min 11 W/m 31,5 km/h (5 Bft) 95,74 %
11.02.2018 08:44 4,2 C 3,3 C 2,2 C 96 % 15 lf 998,9 hPa 0,0 l/m 0 min 0 min 10 W/m 33,8 km/h (5 Bft) 95,74 %
11.02.2018 08:46 4,2 C 3,3 C 2,2 C 95 % 15 lf 999,0 hPa 0,0 l/m 0 min 0 min 10 W/m 31,5 km/h (5 Bft) 95,74 %
11.02.2018 08:48 4,2 C 3,3 C 2,2 C 96 % 15 lf 999,1 hPa 0,2 l/m 0 min 0 min 7 W/m 33,8 km/h (5 Bft) 96,23 %
11.02.2018 08:50 4,2 C 3,3 C 2,2 C 96 % 15 lf 999,1 hPa 0,0 l/m 0 min 0 min 10 W/m 27,0 km/h (4 Bft) 95,74 %
11.02.2018 08:52 4,2 C 3,3 C 2,2 C 95 % 15 lf 999,2 hPa 0,0 l/m 0 min 0 min 12 W/m 33,8 km/h (5 Bft) 97,87 %
11.02.2018 08:54 4,2 C 3,9 C 2,2 C 95 % 15 lf 999,2 hPa 0,0 l/m 0 min 0 min 15 W/m 31,5 km/h (5 Bft) 93,62 %
11.02.2018 08:56 4,2 C 3,9 C 2,2 C 95 % 15 lf 999,2 hPa 0,0 l/m 0 min 2 min 13 W/m 31,5 km/h (5 Bft) 97,87 %
11.02.2018 08:58 4,2 C 3,3 C 2,2 C 95 % 15 lf 999,2 hPa 0,0 l/m 0 min 2 min 11 W/m 29,3 km/h (5 Bft) 93,48 %
11.02.2018 09:00 4,2 C 3,9 C 2,2 C 95 % 15 lf 999,3 hPa 0,0 l/m 0 min 0 min 12 W/m 38,3 km/h (5 Bft) 95,74 %
11.02.2018 09:02 4,2 C 3,9 C 2,2 C 95 % 15 lf 999,3 hPa 0,0 l/m 0 min 2 min 11 W/m 33,8 km/h (5 Bft) 93,62 %
11.02.2018 09:04 4,2 C 3,9 C 2,2 C 95 % 15 lf 999,3 hPa 0,0 l/m 0 min 0 min 11 W/m 24,8 km/h (4 Bft) 93,62 %
11.02.2018 09:06 4,2 C 3,9 C 2,2 C 95 % 15 lf 999,2 hPa 0,0 l/m 0 min 0 min 16 W/m 27,0 km/h (4 Bft) 93,88 %
11.02.2018 09:08 4,2 C 3,9 C 2,2 C 95 % 15 lf 999,2 hPa 0,0 l/m 0 min 0 min 21 W/m 33,8 km/h (5 Bft) 95,74 %
11.02.2018 09:10 4,2 C 3,9 C 2,8 C 95 % 15 lf 999,3 hPa 0,0 l/m 0 min 0 min 24 W/m 45,1 km/h (6 Bft) 93,48 %
11.02.2018 09:12 4,2 C 3,9 C 2,8 C 95 % 15 lf 999,1 hPa 0,0 l/m 0 min 2 min 34 W/m 31,5 km/h (5 Bft) 93,62 %
11.02.2018 09:14 4,3 C 3,9 C 2,8 C 94 % 15 lf 999,0 hPa 0,0 l/m 0 min 2 min 41 W/m 47,3 km/h (6 Bft) 95,74 %
11.02.2018 09:16 4,3 C 3,9 C 2,8 C 95 % 15 lf 999,2 hPa 0,0 l/m 0 min 2 min 37 W/m 33,8 km/h (5 Bft) 97,87 %
11.02.2018 09:18 4,3 C 3,9 C 2,8 C 95 % 15 lf 999,1 hPa 0,0 l/m 0 min 0 min 35 W/m 29,3 km/h (5 Bft) 97,87 %
11.02.2018 09:20 4,4 C 3,9 C 2,8 C 95 % 15 lf 999,1 hPa 0,0 l/m 0 min 2 min 45 W/m 31,5 km/h (5 Bft) 97,83 %
11.02.2018 09:22 4,4 C 3,9 C 2,8 C 94 % 14 lf 999,2 hPa 0,0 l/m 0 min 2 min 55 W/m 33,8 km/h (5 Bft) 95,74 %
11.02.2018 09:24 4,4 C 3,9 C 2,8 C 94 % 12 lf 999,2 hPa 0,0 l/m 0 min 0 min 55 W/m 38,3 km/h (5 Bft) 97,87 %
11.02.2018 09:26 4,4 C 3,9 C 2,8 C 94 % 10 lf 999,2 hPa 0,0 l/m 0 min 2 min 53 W/m 40,6 km/h (6 Bft) 97,87 %
11.02.2018 09:28 4,4 C 3,9 C 2,8 C 94 % 5 lf 999,2 hPa 0,0 l/m 0 min 2 min 58 W/m 38,3 km/h (5 Bft) 97,87 %
11.02.2018 09:30 4,4 C 3,9 C 2,8 C 94 % 3 lf 999,2 hPa 0,0 l/m 0 min 2 min 65 W/m 38,3 km/h (5 Bft) 97,87 %
11.02.2018 09:32 4,4 C 4,4 C 2,8 C 94 % 1 lf 999,1 hPa 0,0 l/m 0 min 0 min 69 W/m 31,5 km/h (5 Bft) 97,87 %
11.02.2018 09:34 4,4 C 4,4 C 2,8 C 94 % 1 lf 999,2 hPa 0,0 l/m 0 min 0 min 72 W/m 31,5 km/h (5 Bft) 97,83 %
11.02.2018 09:36 4,4 C 4,4 C 2,8 C 94 % 0 lf 999,3 hPa 0,0 l/m 0 min 2 min 75 W/m 36,0 km/h (5 Bft) 100,00 %
11.02.2018 09:38 4,5 C 4,4 C 3,3 C 94 % 0 lf 999,3 hPa 0,0 l/m 0 min 2 min 77 W/m 36,0 km/h (5 Bft) 97,87 %
11.02.2018 09:40 4,5 C 4,4 C 3,3 C 94 % 0 lf 999,4 hPa 0,0 l/m 0 min 0 min 75 W/m 36,0 km/h (5 Bft) 97,87 %
11.02.2018 09:42 4,5 C 4,4 C 3,3 C 94 % 0 lf 999,3 hPa 0,0 l/m 0 min 0 min 86 W/m 33,8 km/h (5 Bft) 95,74 %
11.02.2018 09:44 4,6 C 4,4 C 3,3 C 94 % 0 lf 999,3 hPa 0,0 l/m 0 min 0 min 92 W/m 27,0 km/h (4 Bft) 100,00 %
11.02.2018 09:46 4,6 C 4,4 C 3,3 C 94 % 0 lf 999,3 hPa 0,0 l/m 0 min 0 min 96 W/m 33,8 km/h (5 Bft) 100,00 %
11.02.2018 09:48 4,6 C 5,0 C 3,3 C 94 % 0 lf 999,4 hPa 0,0 l/m 0 min 0 min 98 W/m 33,8 km/h (5 Bft) 100,00 %
11.02.2018 09:50 4,6 C 5,0 C 3,3 C 94 % 0 lf 999,4 hPa 0,0 l/m 0 min 2 min 94 W/m 38,3 km/h (5 Bft) 97,87 %
11.02.2018 09:52 4,7 C 5,0 C 3,3 C 94 % 0 lf 999,4 hPa 0,0 l/m 0 min 0 min 93 W/m 29,3 km/h (5 Bft) 97,87 %
11.02.2018 09:54 4,7 C 5,0 C 3,3 C 94 % 0 lf 999,5 hPa 0,0 l/m 0 min 0 min 78 W/m 22,5 km/h (4 Bft) 100,00 %
11.02.2018 09:56 4,7 C 5,0 C 3,3 C 94 % 0 lf 999,5 hPa 0,0 l/m 0 min 0 min 62 W/m 27,0 km/h (4 Bft) 100,00 %
11.02.2018 09:58 4,7 C 5,0 C 3,3 C 94 % 0 lf 999,4 hPa 0,0 l/m 0 min 0 min 75 W/m 36,0 km/h (5 Bft) 100,00 %
11.02.2018 10:00 4,7 C 5,0 C 3,3 C 94 % 0 lf 999,6 hPa 0,0 l/m 0 min 0 min 60 W/m 29,3 km/h (5 Bft) 100,00 %
11.02.2018 10:02 4,7 C 5,0 C 3,3 C 93 % 0 lf 999,5 hPa 0,0 l/m 0 min 0 min 61 W/m 36,0 km/h (5 Bft) 100,00 %
11.02.2018 10:04 4,8 C 5,0 C 3,3 C 93 % 0 lf 999,6 hPa 0,0 l/m 0 min 0 min 56 W/m 24,8 km/h (4 Bft) 100,00 %
11.02.2018 10:06 4,8 C 5,0 C 3,3 C 93 % 0 lf 999,5 hPa 0,0 l/m 0 min 2 min 42 W/m 31,5 km/h (5 Bft) 100,00 %
11.02.2018 10:08 4,8 C 5,0 C 3,3 C 93 % 0 lf 999,5 hPa 0,0 l/m 0 min 0 min 46 W/m 31,5 km/h (5 Bft) 100,00 %
11.02.2018 10:10 4,8 C 5,0 C 3,3 C 93 % 0 lf 999,5 hPa 0,0 l/m 0 min 0 min 54 W/m 22,5 km/h (4 Bft) 100,00 %
11.02.2018 10:12 4,8 C 5,0 C 3,3 C 93 % 0 lf 999,5 hPa 0,0 l/m 0 min 0 min 85 W/m 22,5 km/h (4 Bft) 100,00 %
11.02.2018 10:14 4,8 C 5,6 C 3,9 C 93 % 0 lf 999,5 hPa 0,0 l/m 0 min 0 min 104 W/m 22,5 km/h (4 Bft) 93,62 %
11.02.2018 10:16 4,9 C 5,6 C 3,9 C 93 % 0 lf 999,4 hPa 0,0 l/m 0 min 0 min 107 W/m 33,8 km/h (5 Bft) 95,74 %
11.02.2018 10:18 4,9 C 5,6 C 3,9 C 93 % 0 lf 999,5 hPa 0,0 l/m 0 min 0 min 106 W/m 31,5 km/h (5 Bft) 95,74 %
11.02.2018 10:20 4,9 C 5,6 C 3,9 C 93 % 0 lf 999,5 hPa 0,0 l/m 0 min 0 min 110 W/m 27,0 km/h (4 Bft) 93,48 %
11.02.2018 10:22 4,9 C 5,6 C 3,9 C 93 % 0 lf 999,5 hPa 0,0 l/m 0 min 0 min 100 W/m 20,3 km/h (4 Bft) 95,74 %
11.02.2018 10:24 5,0 C 5,6 C 3,9 C 93 % 0 lf 999,5 hPa 0,0 l/m 0 min 0 min 75 W/m 29,3 km/h (5 Bft) 95,74 %
11.02.2018 10:26 5,0 C 5,6 C 3,3 C 93 % 0 lf 999,4 hPa 0,0 l/m 0 min 0 min 52 W/m 20,3 km/h (4 Bft) 97,87 %
11.02.2018 10:28 5,0 C 5,6 C 3,3 C 93 % 0 lf 999,5 hPa 0,0 l/m 0 min 0 min 56 W/m 22,5 km/h (4 Bft) 93,62 %
11.02.2018 10:30 5,0 C 5,6 C 3,3 C 93 % 0 lf 999,5 hPa 0,0 l/m 0 min 0 min 51 W/m 24,8 km/h (4 Bft) 93,48 %
11.02.2018 10:32 5,0 C 5,6 C 3,3 C 93 % 0 lf 999,5 hPa 0,0 l/m 0 min 0 min 49 W/m 29,3 km/h (5 Bft) 95,74 %
11.02.2018 10:34 5,0 C 5,6 C 3,3 C 93 % 0 lf 999,5 hPa 0,0 l/m 0 min 0 min 38 W/m 18,0 km/h (3 Bft) 95,74 %
11.02.2018 10:36 5,0 C 5,6 C 3,3 C 93 % 0 lf 999,6 hPa 0,0 l/m 0 min 0 min 38 W/m 15,8 km/h (3 Bft) 91,49 %
11.02.2018 10:38 5,0 C 5,0 C 3,3 C 93 % 0 lf 999,6 hPa 0,0 l/m 0 min 0 min 39 W/m 24,8 km/h (4 Bft) 93,62 %
11.02.2018 10:40 5,0 C 5,0 C 3,3 C 93 % 0 lf 999,5 hPa 0,0 l/m 0 min 0 min 50 W/m 15,8 km/h (3 Bft) 91,49 %
11.02.2018 10:42 5,0 C 5,0 C 3,3 C 93 % 0 lf 999,6 hPa 0,0 l/m 0 min 0 min 47 W/m 27,0 km/h (4 Bft) 95,65 %
11.02.2018 10:44 5,0 C 5,6 C 3,3 C 93 % 0 lf 999,6 hPa 0,0 l/m 0 min 0 min 83 W/m 31,5 km/h (5 Bft) 93,62 %
11.02.2018 10:46 5,1 C 6,1 C 3,9 C 93 % 0 lf 999,6 hPa 0,0 l/m 0 min 0 min 175 W/m 22,5 km/h (4 Bft) 95,74 %
11.02.2018 10:48 5,1 C 6,7 C 3,9 C 93 % 0 lf 999,6 hPa 0,0 l/m 2 min 0 min 198 W/m 24,8 km/h (4 Bft) 95,74 %
11.02.2018 10:50 5,1 C 6,7 C 4,4 C 93 % 0 lf 999,6 hPa 0,0 l/m 0 min 0 min 188 W/m 15,8 km/h (3 Bft) 93,62 %
11.02.2018 10:52 5,2 C 6,7 C 4,4 C 93 % 0 lf 999,6 hPa 0,0 l/m 0 min 0 min 112 W/m 27,0 km/h (4 Bft) 89,36 %
11.02.2018 10:54 5,2 C 6,1 C 3,9 C 93 % 0 lf 999,6 hPa 0,0 l/m 0 min 0 min 60 W/m 18,0 km/h (3 Bft) 93,48 %
11.02.2018 10:56 5,2 C 6,1 C 3,9 C 93 % 0 lf 999,6 hPa 0,0 l/m 0 min 0 min 52 W/m 22,5 km/h (4 Bft) 93,62 %
11.02.2018 10:58 5,2 C 5,6 C 3,9 C 93 % 0 lf 999,6 hPa 0,0 l/m 0 min 0 min 50 W/m 15,8 km/h (3 Bft) 93,62 %
11.02.2018 11:00 5,2 C 5,6 C 3,9 C 93 % 0 lf 999,7 hPa 0,0 l/m 0 min 0 min 34 W/m 24,8 km/h (4 Bft) 91,49 %
11.02.2018 11:02 5,3 C 5,6 C 3,3 C 93 % 0 lf 999,7 hPa 0,0 l/m 0 min 0 min 27 W/m 20,3 km/h (4 Bft) 91,49 %
11.02.2018 11:04 5,3 C 5,6 C 3,3 C 93 % 0 lf 999,6 hPa 0,0 l/m 0 min 0 min 28 W/m 18,0 km/h (3 Bft) 91,49 %
11.02.2018 11:06 5,3 C 5,6 C 3,3 C 93 % 0 lf 999,6 hPa 0,0 l/m 0 min 0 min 32 W/m 33,8 km/h (5 Bft) 93,48 %
11.02.2018 11:08 5,3 C 5,6 C 3,3 C 93 % 0 lf 999,7 hPa 0,0 l/m 0 min 0 min 39 W/m 31,5 km/h (5 Bft) 93,62 %
11.02.2018 11:10 5,3 C 5,6 C 3,9 C 92 % 0 lf 999,7 hPa 0,0 l/m 0 min 0 min 49 W/m 22,5 km/h (4 Bft) 91,49 %
11.02.2018 11:12 5,3 C 5,6 C 3,9 C 92 % 0 lf 999,7 hPa 0,0 l/m 0 min 0 min 58 W/m 31,5 km/h (5 Bft) 95,74 %
11.02.2018 11:14 5,3 C 5,6 C 3,9 C 92 % 0 lf 999,7 hPa 0,0 l/m 0 min 0 min 70 W/m 38,3 km/h (5 Bft) 93,62 %
11.02.2018 11:16 5,3 C 5,6 C 3,9 C 92 % 0 lf 999,7 hPa 0,0 l/m 0 min 0 min 94 W/m 31,5 km/h (5 Bft) 93,62 %
11.02.2018 11:18 5,4 C 6,1 C 3,9 C 92 % 0 lf 999,7 hPa 0,0 l/m 0 min 0 min 78 W/m 27,0 km/h (4 Bft) 89,13 %
11.02.2018 11:20 5,4 C 6,1 C 3,9 C 92 % 0 lf 999,7 hPa 0,0 l/m 0 min 0 min 91 W/m 27,0 km/h (4 Bft) 93,62 %
11.02.2018 11:22 5,4 C 6,1 C 3,9 C 92 % 0 lf 999,7 hPa 0,0 l/m 0 min 0 min 106 W/m 27,0 km/h (4 Bft) 93,62 %
11.02.2018 11:24 5,4 C 6,1 C 3,9 C 92 % 0 lf 999,8 hPa 0,0 l/m 0 min 0 min 105 W/m 29,3 km/h (5 Bft) 93,62 %
11.02.2018 11:26 5,4 C 6,1 C 3,9 C 92 % 0 lf 999,7 hPa 0,0 l/m 0 min 0 min 71 W/m 31,5 km/h (5 Bft) 95,74 %
11.02.2018 11:28 5,5 C 6,1 C 3,9 C 92 % 3 lf 999,8 hPa 0,0 l/m 0 min 2 min 82 W/m 27,0 km/h (4 Bft) 95,74 %
11.02.2018 11:30 5,5 C 6,1 C 3,9 C 92 % 0 lf 999,8 hPa 0,0 l/m 0 min 0 min 126 W/m 29,3 km/h (5 Bft) 97,83 %
11.02.2018 11:32 5,5 C 6,1 C 4,4 C 92 % 0 lf 999,8 hPa 0,0 l/m 0 min 0 min 159 W/m 31,5 km/h (5 Bft) 95,74 %
11.02.2018 11:34 5,6 C 6,7 C 4,4 C 92 % 0 lf 999,7 hPa 0,0 l/m 2 min 0 min 218 W/m 38,3 km/h (5 Bft) 97,87 %
11.02.2018 11:36 5,6 C 6,7 C 4,4 C 92 % 1 lf 999,8 hPa 0,0 l/m 0 min 0 min 187 W/m 33,8 km/h (5 Bft) 97,87 %
11.02.2018 11:38 5,6 C 6,1 C 4,4 C 92 % 6 lf 999,8 hPa 0,0 l/m 0 min 2 min 88 W/m 31,5 km/h (5 Bft) 97,87 %
11.02.2018 11:40 5,7 C 6,1 C 3,9 C 92 % 15 lf 999,8 hPa 0,0 l/m 0 min 2 min 50 W/m 27,0 km/h (4 Bft) 97,87 %
11.02.2018 11:42 5,7 C 5,6 C 3,9 C 92 % 15 lf 999,8 hPa 0,0 l/m 0 min 2 min 43 W/m 24,8 km/h (4 Bft) 93,48 %
11.02.2018 11:44 5,7 C 5,6 C 3,9 C 92 % 15 lf 999,8 hPa 0,0 l/m 0 min 2 min 43 W/m 27,0 km/h (4 Bft) 91,49 %
11.02.2018 11:46 5,7 C 5,6 C 3,9 C 92 % 15 lf 999,8 hPa 0,0 l/m 0 min 0 min 45 W/m 18,0 km/h (3 Bft) 97,87 %
11.02.2018 11:48 5,7 C 5,6 C 3,9 C 92 % 15 lf 999,8 hPa 0,0 l/m 0 min 0 min 60 W/m 18,0 km/h (3 Bft) 97,87 %
11.02.2018 11:50 5,7 C 5,6 C 3,9 C 92 % 15 lf 999,7 hPa 0,0 l/m 0 min 0 min 49 W/m 20,3 km/h (4 Bft) 97,87 %
11.02.2018 11:52 5,7 C 5,6 C 3,9 C 92 % 15 lf 999,8 hPa 0,0 l/m 0 min 2 min 64 W/m 22,5 km/h (4 Bft) 100,00 %
11.02.2018 11:54 5,7 C 5,6 C 3,9 C 92 % 15 lf 999,8 hPa 0,0 l/m 0 min 2 min 43 W/m 22,5 km/h (4 Bft) 100,00 %
11.02.2018 11:56 5,7 C 5,6 C 3,9 C 92 % 15 lf 999,9 hPa 0,0 l/m 0 min 2 min 27 W/m 15,8 km/h (3 Bft) 100,00 %
11.02.2018 11:58 5,6 C 5,0 C 3,3 C 92 % 15 lf 1000,1 hPa 0,0 l/m 0 min 2 min 24 W/m 24,8 km/h (4 Bft) 100,00 %
11.02.2018 12:00 5,6 C 4,4 C 3,3 C 92 % 15 lf 1000,1 hPa 0,0 l/m 0 min 2 min 27 W/m 22,5 km/h (4 Bft) 97,87 %
11.02.2018 12:02 5,5 C 4,4 C 3,3 C 92 % 15 lf 1000,2 hPa 0,0 l/m 0 min 2 min 32 W/m 38,3 km/h (5 Bft) 100,00 %
11.02.2018 12:04 5,4 C 4,4 C 3,3 C 92 % 15 lf 1000,1 hPa 0,2 l/m 0 min 2 min 43 W/m 22,5 km/h (4 Bft) 100,00 %
11.02.2018 12:06 5,3 C 4,4 C 3,3 C 92 % 15 lf 1000,1 hPa 0,0 l/m 0 min 2 min 44 W/m 20,3 km/h (4 Bft) 100,00 %
11.02.2018 12:08 5,3 C 3,9 C 3,3 C 92 % 15 lf 1000,0 hPa 0,0 l/m 0 min 2 min 41 W/m 31,5 km/h (5 Bft) 100,00 %
11.02.2018 12:10 5,1 C 3,9 C 2,8 C 92 % 15 lf 999,9 hPa 0,2 l/m 0 min 2 min 46 W/m 29,3 km/h (5 Bft) 100,00 %
11.02.2018 12:12 5,0 C 3,9 C 2,8 C 92 % 15 lf 999,9 hPa 0,0 l/m 0 min 2 min 51 W/m 24,8 km/h (4 Bft) 97,87 %
11.02.2018 12:14 4,9 C 3,9 C 2,8 C 92 % 15 lf 999,9 hPa 0,2 l/m 0 min 2 min 58 W/m 18,0 km/h (3 Bft) 100,00 %
11.02.2018 12:16 4,8 C 3,9 C 2,8 C 92 % 15 lf 999,9 hPa 0,0 l/m 0 min 2 min 53 W/m 36,0 km/h (5 Bft) 100,00 %
11.02.2018 12:18 4,7 C 3,9 C 2,8 C 92 % 15 lf 999,9 hPa 0,0 l/m 0 min 2 min 50 W/m 29,3 km/h (5 Bft) 95,74 %
11.02.2018 12:20 4,6 C 3,3 C 2,8 C 92 % 15 lf 999,9 hPa 0,0 l/m 0 min 2 min 47 W/m 27,0 km/h (4 Bft) 100,00 %
11.02.2018 12:22 4,6 C 3,3 C 2,8 C 92 % 15 lf 999,9 hPa 0,2 l/m 0 min 2 min 33 W/m 20,3 km/h (4 Bft) 97,87 %
11.02.2018 12:24 4,5 C 3,3 C 2,2 C 92 % 15 lf 999,9 hPa 0,0 l/m 0 min 2 min 29 W/m 27,0 km/h (4 Bft) 97,87 %
11.02.2018 12:26 4,4 C 3,3 C 2,2 C 92 % 15 lf 999,8 hPa 0,2 l/m 0 min 2 min 44 W/m 20,3 km/h (4 Bft) 97,87 %
11.02.2018 12:28 4,4 C 3,9 C 2,8 C 92 % 15 lf 999,9 hPa 0,0 l/m 0 min 2 min 73 W/m 22,5 km/h (4 Bft) 100,00 %
11.02.2018 12:30 4,4 C 3,9 C 3,3 C 93 % 15 lf 999,8 hPa 0,0 l/m 0 min 2 min 148 W/m 20,3 km/h (4 Bft) 97,87 %
11.02.2018 12:32 4,4 C 4,4 C 3,3 C 93 % 15 lf 999,9 hPa 0,2 l/m 0 min 2 min 90 W/m 13,5 km/h (3 Bft) 100,00 %
11.02.2018 12:34 4,4 C 4,4 C 3,3 C 93 % 15 lf 999,9 hPa 0,0 l/m 0 min 2 min 81 W/m 18,0 km/h (3 Bft) 97,87 %
11.02.2018 12:36 4,4 C 4,4 C 3,3 C 93 % 15 lf 999,9 hPa 0,0 l/m 0 min 0 min 89 W/m 13,5 km/h (3 Bft) 97,87 %
11.02.2018 12:38 4,4 C 4,4 C 3,3 C 93 % 15 lf 999,9 hPa 0,2 l/m 0 min 0 min 81 W/m 11,3 km/h (2 Bft) 97,87 %
11.02.2018 12:40 4,4 C 5,0 C 3,3 C 93 % 15 lf 999,9 hPa 0,0 l/m 0 min 0 min 126 W/m 13,5 km/h (3 Bft) 95,65 %
11.02.2018 12:42 4,4 C 5,0 C 3,3 C 93 % 15 lf 999,9 hPa 0,0 l/m 0 min 0 min 97 W/m 11,3 km/h (2 Bft) 100,00 %
11.02.2018 12:44 4,5 C 4,4 C 3,3 C 93 % 15 lf 999,9 hPa 0,0 l/m 0 min 0 min 52 W/m 13,5 km/h (3 Bft) 100,00 %
11.02.2018 12:46 4,5 C 4,4 C 3,3 C 93 % 15 lf 999,9 hPa 0,2 l/m 0 min 0 min 49 W/m 11,3 km/h (2 Bft) 97,87 %
11.02.2018 12:48 4,6 C 4,4 C 3,3 C 94 % 15 lf 999,9 hPa 0,0 l/m 0 min 0 min 43 W/m 11,3 km/h (2 Bft) 97,87 %
11.02.2018 12:50 4,6 C 4,4 C 3,3 C 94 % 15 lf 999,9 hPa 0,0 l/m 0 min 2 min 41 W/m 18,0 km/h (3 Bft) 97,87 %
11.02.2018 12:52 4,6 C 4,4 C 3,3 C 94 % 15 lf 999,9 hPa 0,0 l/m 0 min 2 min 33 W/m 29,3 km/h (5 Bft) 93,48 %
11.02.2018 12:54 4,7 C 4,4 C 2,8 C 94 % 15 lf 1000,0 hPa 0,2 l/m 0 min 2 min 28 W/m 24,8 km/h (4 Bft) 97,87 %
11.02.2018 12:56 4,7 C 4,4 C 2,8 C 94 % 15 lf 1000,0 hPa 0,0 l/m 0 min 2 min 32 W/m 24,8 km/h (4 Bft) 95,65 %
11.02.2018 12:58 4,7 C 4,4 C 3,3 C 94 % 15 lf 1000,0 hPa 0,0 l/m 0 min 2 min 54 W/m 27,0 km/h (4 Bft) 97,87 %
11.02.2018 13:00 4,8 C 4,4 C 3,3 C 94 % 15 lf 1000,0 hPa 0,0 l/m 0 min 0 min 71 W/m 29,3 km/h (5 Bft) 97,87 %
11.02.2018 13:02 4,8 C 4,4 C 3,3 C 94 % 15 lf 1000,0 hPa 0,0 l/m 0 min 2 min 59 W/m 27,0 km/h (4 Bft) 95,74 %
11.02.2018 13:04 4,8 C 4,4 C 3,3 C 94 % 15 lf 1000,0 hPa 0,2 l/m 0 min 2 min 68 W/m 27,0 km/h (4 Bft) 95,65 %
11.02.2018 13:06 4,8 C 5,0 C 3,9 C 94 % 15 lf 1000,0 hPa 0,0 l/m 0 min 0 min 106 W/m 29,3 km/h (5 Bft) 95,83 %
11.02.2018 13:08 4,9 C 5,0 C 3,9 C 94 % 15 lf 1000,0 hPa 0,0 l/m 0 min 0 min 108 W/m 31,5 km/h (5 Bft) 91,49 %
11.02.2018 13:10 4,9 C 5,0 C 3,9 C 94 % 15 lf 1000,1 hPa 0,0 l/m 0 min 0 min 81 W/m 29,3 km/h (5 Bft) 95,74 %
11.02.2018 13:12 4,9 C 5,0 C 3,9 C 95 % 15 lf 1000,0 hPa 0,0 l/m 0 min 0 min 93 W/m 24,8 km/h (4 Bft) 95,74 %
11.02.2018 13:14 5,0 C 5,0 C 3,9 C 95 % 15 lf 1000,1 hPa 0,2 l/m 0 min 0 min 91 W/m 15,8 km/h (3 Bft) 93,48 %
11.02.2018 13:16 5,0 C 5,0 C 3,9 C 95 % 15 lf 1000,0 hPa 0,0 l/m 0 min 0 min 92 W/m 31,5 km/h (5 Bft) 95,74 %
11.02.2018 13:18 5,1 C 5,0 C 3,9 C 95 % 15 lf 1000,0 hPa 0,0 l/m 0 min 0 min 88 W/m 24,8 km/h (4 Bft) 95,74 %
11.02.2018 13:20 5,1 C 5,0 C 3,9 C 95 % 15 lf 1000,1 hPa 0,0 l/m 0 min 0 min 93 W/m 22,5 km/h (4 Bft) 95,74 %
11.02.2018 13:22 5,1 C 5,0 C 3,9 C 95 % 15 lf 1000,1 hPa 0,0 l/m 0 min 0 min 95 W/m 22,5 km/h (4 Bft) 97,87 %
11.02.2018 13:24 5,1 C 5,0 C 3,9 C 95 % 15 lf 1000,0 hPa 0,0 l/m 0 min 0 min 117 W/m 22,5 km/h (4 Bft) 97,87 %
11.02.2018 13:26 5,1 C 5,0 C 3,9 C 95 % 15 lf 1000,1 hPa 0,0 l/m 0 min 0 min 86 W/m 20,3 km/h (4 Bft) 95,65 %
11.02.2018 13:28 5,2 C 5,0 C 3,9 C 95 % 15 lf 1000,1 hPa 0,0 l/m 0 min 0 min 79 W/m 31,5 km/h (5 Bft) 97,87 %
11.02.2018 13:30 5,2 C 5,0 C 3,9 C 95 % 15 lf 1000,1 hPa 0,0 l/m 0 min 0 min 77 W/m 33,8 km/h (5 Bft) 97,87 %
11.02.2018 13:32 5,2 C 5,0 C 3,9 C 95 % 15 lf 1000,1 hPa 0,0 l/m 0 min 0 min 93 W/m 27,0 km/h (4 Bft) 93,62 %
11.02.2018 13:34 5,2 C 5,0 C 3,9 C 95 % 15 lf 1000,1 hPa 0,0 l/m 0 min 0 min 105 W/m 31,5 km/h (5 Bft) 97,87 %
11.02.2018 13:36 5,2 C 5,0 C 3,9 C 94 % 15 lf 1000,1 hPa 0,0 l/m 0 min 2 min 98 W/m 27,0 km/h (4 Bft) 97,87 %
11.02.2018 13:38 5,2 C 5,0 C 3,9 C 94 % 15 lf 1000,1 hPa 0,2 l/m 0 min 0 min 89 W/m 31,5 km/h (5 Bft) 91,30 %
11.02.2018 13:40 5,1 C 4,4 C 3,9 C 94 % 15 lf 1000,2 hPa 0,0 l/m 0 min 0 min 87 W/m 27,0 km/h (4 Bft) 97,87 %
11.02.2018 13:42 5,1 C 4,4 C 3,9 C 94 % 15 lf 1000,1 hPa 0,0 l/m 0 min 0 min 89 W/m 27,0 km/h (4 Bft) 97,87 %
11.02.2018 13:44 5,1 C 4,4 C 3,9 C 94 % 15 lf 1000,2 hPa 0,0 l/m 0 min 0 min 105 W/m 27,0 km/h (4 Bft) 95,74 %
11.02.2018 13:46 5,1 C 4,4 C 3,3 C 94 % 15 lf 1000,2 hPa 0,0 l/m 0 min 0 min 125 W/m 27,0 km/h (4 Bft) 97,87 %
11.02.2018 13:48 5,0 C 5,0 C 3,3 C 94 % 15 lf 1000,2 hPa 0,0 l/m 0 min 0 min 141 W/m 27,0 km/h (4 Bft) 95,65 %
11.02.2018 13:50 5,0 C 5,0 C 3,3 C 93 % 15 lf 1000,2 hPa 0,0 l/m 0 min 0 min 183 W/m 33,8 km/h (5 Bft) 93,62 %
11.02.2018 13:52 5,0 C 5,6 C 3,9 C 93 % 15 lf 1000,1 hPa 0,0 l/m 0 min 0 min 183 W/m 22,5 km/h (4 Bft) 95,74 %
11.02.2018 13:54 5,0 C 5,6 C 3,9 C 93 % 15 lf 1000,1 hPa 0,0 l/m 0 min 0 min 196 W/m 29,3 km/h (5 Bft) 97,87 %
11.02.2018 13:56 5,0 C 5,6 C 3,9 C 93 % 15 lf 1000,1 hPa 0,0 l/m 0 min 0 min 191 W/m 29,3 km/h (5 Bft) 93,62 %
11.02.2018 13:58 5,1 C 6,1 C 3,9 C 93 % 15 lf 1000,2 hPa 0,0 l/m 0 min 0 min 218 W/m 27,0 km/h (4 Bft) 97,87 %
11.02.2018 14:00 5,1 C 6,1 C 3,9 C 93 % 15 lf 1000,2 hPa 0,0 l/m 2 min 0 min 232 W/m 27,0 km/h (4 Bft) 95,65 %
11.02.2018 14:02 5,1 C 6,7 C 3,9 C 93 % 15 lf 1000,2 hPa 0,0 l/m 2 min 0 min 234 W/m 15,8 km/h (3 Bft) 97,87 %
11.02.2018 14:04 5,2 C 7,2 C 4,4 C 93 % 15 lf 1000,2 hPa 0,0 l/m 2 min 0 min 251 W/m 22,5 km/h (4 Bft) 93,62 %
11.02.2018 14:06 5,2 C 7,2 C 4,4 C 93 % 15 lf 1000,2 hPa 0,0 l/m 2 min 0 min 257 W/m 24,8 km/h (4 Bft) 95,83 %
11.02.2018 14:08 5,2 C 7,2 C 4,4 C 93 % 15 lf 1000,3 hPa 0,0 l/m 2 min 0 min 256 W/m 24,8 km/h (4 Bft) 97,87 %
11.02.2018 14:10 5,3 C 6,7 C 4,4 C 93 % 15 lf 1000,2 hPa 0,0 l/m 2 min 0 min 228 W/m 15,8 km/h (3 Bft) 95,74 %
11.02.2018 14:12 5,3 C 6,7 C 4,4 C 93 % 15 lf 1000,2 hPa 0,0 l/m 0 min 0 min 164 W/m 20,3 km/h (4 Bft) 95,65 %
11.02.2018 14:14 5,3 C 6,1 C 4,4 C 93 % 15 lf 1000,2 hPa 0,0 l/m 0 min 0 min 155 W/m 33,8 km/h (5 Bft) 93,62 %
11.02.2018 14:16 5,4 C 5,6 C 4,4 C 93 % 15 lf 1000,2 hPa 0,0 l/m 0 min 0 min 153 W/m 29,3 km/h (5 Bft) 89,36 %
11.02.2018 14:18 5,4 C 5,6 C 3,9 C 92 % 14 lf 1000,2 hPa 0,0 l/m 0 min 0 min 152 W/m 27,0 km/h (4 Bft) 89,36 %
11.02.2018 14:20 5,4 C 5,6 C 3,9 C 92 % 12 lf 1000,2 hPa 0,0 l/m 0 min 0 min 144 W/m 22,5 km/h (4 Bft) 95,74 %
11.02.2018 14:22 5,4 C 5,6 C 3,9 C 92 % 11 lf 1000,1 hPa 0,0 l/m 0 min 0 min 146 W/m 18,0 km/h (3 Bft) 95,74 %
11.02.2018 14:24 5,4 C 5,6 C 4,4 C 92 % 10 lf 1000,2 hPa 0,0 l/m 0 min 0 min 147 W/m 22,5 km/h (4 Bft) 95,65 %
11.02.2018 14:26 5,4 C 5,6 C 4,4 C 92 % 9 lf 1000,2 hPa 0,0 l/m 0 min 0 min 138 W/m 24,8 km/h (4 Bft) 95,74 %
11.02.2018 14:28 5,4 C 5,6 C 3,9 C 91 % 6 lf 1000,2 hPa 0,0 l/m 0 min 0 min 127 W/m 31,5 km/h (5 Bft) 95,74 %
11.02.2018 14:30 5,4 C 5,0 C 3,9 C 91 % 4 lf 1000,2 hPa 0,0 l/m 0 min 0 min 116 W/m 31,5 km/h (5 Bft) 95,74 %
11.02.2018 14:32 5,4 C 5,0 C 3,9 C 91 % 4 lf 1000,3 hPa 0,0 l/m 0 min 0 min 120 W/m 36,0 km/h (5 Bft) 93,62 %
11.02.2018 14:34 5,4 C 5,0 C 3,9 C 91 % 3 lf 1000,3 hPa 0,0 l/m 0 min 0 min 108 W/m 31,5 km/h (5 Bft) 93,62 %
11.02.2018 14:36 5,3 C 5,0 C 3,9 C 90 % 3 lf 1000,3 hPa 0,0 l/m 0 min 0 min 100 W/m 31,5 km/h (5 Bft) 97,83 %
11.02.2018 14:38 5,3 C 4,4 C 3,3 C 89 % 2 lf 1000,3 hPa 0,0 l/m 0 min 0 min 98 W/m 31,5 km/h (5 Bft) 97,87 %
11.02.2018 14:40 5,2 C 4,4 C 3,3 C 89 % 1 lf 1000,4 hPa 0,0 l/m 0 min 0 min 102 W/m 36,0 km/h (5 Bft) 97,87 %
11.02.2018 14:42 5,2 C 4,4 C 3,3 C 89 % 0 lf 1000,3 hPa 0,0 l/m 0 min 0 min 108 W/m 33,8 km/h (5 Bft) 97,87 %
11.02.2018 14:44 5,2 C 4,4 C 3,3 C 88 % 0 lf 1000,3 hPa 0,0 l/m 0 min 0 min 114 W/m 22,5 km/h (4 Bft) 95,74 %
11.02.2018 14:46 5,1 C 4,4 C 3,3 C 88 % 0 lf 1000,3 hPa 0,0 l/m 0 min 0 min 121 W/m 29,3 km/h (5 Bft) 95,65 %
11.02.2018 14:48 5,1 C 4,4 C 3,3 C 88 % 0 lf 1000,3 hPa 0,0 l/m 0 min 0 min 132 W/m 22,5 km/h (4 Bft) 93,62 %
11.02.2018 14:50 5,1 C 4,4 C 3,3 C 88 % 0 lf 1000,4 hPa 0,0 l/m 0 min 0 min 132 W/m 20,3 km/h (4 Bft) 95,74 %
11.02.2018 14:52 5,1 C 4,4 C 3,3 C 88 % 0 lf 1000,4 hPa 0,0 l/m 0 min 0 min 117 W/m 22,5 km/h (4 Bft) 93,62 %
11.02.2018 14:54 5,0 C 4,4 C 3,3 C 88 % 0 lf 1000,4 hPa 0,0 l/m 0 min 0 min 116 W/m 29,3 km/h (5 Bft) 93,62 %
11.02.2018 14:56 4,9 C 4,4 C 3,3 C 88 % 0 lf 1000,4 hPa 0,0 l/m 0 min 0 min 126 W/m 29,3 km/h (5 Bft) 93,62 %
11.02.2018 14:58 4,9 C 4,4 C 3,3 C 88 % 0 lf 1000,3 hPa 0,0 l/m 0 min 0 min 138 W/m 27,0 km/h (4 Bft) 95,65 %
11.02.2018 15:00 4,9 C 4,4 C 3,3 C 88 % 0 lf 1000,3 hPa 0,0 l/m 0 min 0 min 141 W/m 22,5 km/h (4 Bft) 93,62 %
11.02.2018 15:02 4,9 C 4,4 C 3,3 C 88 % 0 lf 1000,3 hPa 0,0 l/m 0 min 0 min 137 W/m 24,8 km/h (4 Bft) 95,74 %
11.02.2018 15:04 4,9 C 4,4 C 3,3 C 88 % 0 lf 1000,3 hPa 0,0 l/m 0 min 0 min 138 W/m 40,6 km/h (6 Bft) 95,74 %
11.02.2018 15:06 4,9 C 4,4 C 3,3 C 88 % 0 lf 1000,4 hPa 0,0 l/m 0 min 0 min 139 W/m 27,0 km/h (4 Bft) 93,75 %
11.02.2018 15:08 4,8 C 4,4 C 3,3 C 88 % 0 lf 1000,3 hPa 0,0 l/m 0 min 0 min 134 W/m 27,0 km/h (4 Bft) 97,87 %
11.02.2018 15:10 4,8 C 4,4 C 3,3 C 88 % 0 lf 1000,3 hPa 0,0 l/m 0 min 0 min 130 W/m 22,5 km/h (4 Bft) 97,83 %
11.02.2018 15:12 4,8 C 4,4 C 3,3 C 88 % 0 lf 1000,4 hPa 0,0 l/m 0 min 0 min 133 W/m 24,8 km/h (4 Bft) 95,74 %
11.02.2018 15:14 4,8 C 4,4 C 3,3 C 88 % 0 lf 1000,3 hPa 0,0 l/m 0 min 0 min 141 W/m 31,5 km/h (5 Bft) 97,87 %
11.02.2018 15:16 4,8 C 4,4 C 3,3 C 88 % 0 lf 1000,4 hPa 0,0 l/m 0 min 0 min 143 W/m 36,0 km/h (5 Bft) 97,87 %
11.02.2018 15:18 4,8 C 4,4 C 3,3 C 88 % 0 lf 1000,4 hPa 0,0 l/m 0 min 0 min 142 W/m 22,5 km/h (4 Bft) 97,87 %
11.02.2018 15:20 4,8 C 4,4 C 3,3 C 88 % 0 lf 1000,4 hPa 0,0 l/m 0 min 0 min 140 W/m 24,8 km/h (4 Bft) 97,87 %
11.02.2018 15:22 4,8 C 5,0 C 3,3 C 88 % 0 lf 1000,4 hPa 0,0 l/m 0 min 0 min 147 W/m 29,3 km/h (5 Bft) 100,00 %
11.02.2018 15:24 4,8 C 5,0 C 3,3 C 88 % 0 lf 1000,4 hPa 0,0 l/m 2 min 0 min 169 W/m 31,5 km/h (5 Bft) 100,00 %
11.02.2018 15:26 4,9 C 5,0 C 3,3 C 88 % 0 lf 1000,4 hPa 0,0 l/m 2 min 0 min 185 W/m 29,3 km/h (5 Bft) 97,87 %
11.02.2018 15:28 4,9 C 5,6 C 3,3 C 88 % 0 lf 1000,4 hPa 0,0 l/m 2 min 0 min 163 W/m 24,8 km/h (4 Bft) 93,62 %
11.02.2018 15:30 4,9 C 5,0 C 3,3 C 88 % 0 lf 1000,5 hPa 0,0 l/m 0 min 0 min 146 W/m 24,8 km/h (4 Bft) 100,00 %
11.02.2018 15:32 4,9 C 5,0 C 3,3 C 88 % 0 lf 1000,5 hPa 0,0 l/m 0 min 0 min 139 W/m 22,5 km/h (4 Bft) 100,00 %
11.02.2018 15:34 5,0 C 5,0 C 3,3 C 88 % 0 lf 1000,6 hPa 0,0 l/m 0 min 0 min 132 W/m 22,5 km/h (4 Bft) 100,00 %
11.02.2018 15:36 5,0 C 5,0 C 3,3 C 88 % 0 lf 1000,7 hPa 0,0 l/m 0 min 0 min 133 W/m 27,0 km/h (4 Bft) 100,00 %
11.02.2018 15:38 5,0 C 5,0 C 3,3 C 88 % 0 lf 1000,7 hPa 0,0 l/m 0 min 0 min 134 W/m 20,3 km/h (4 Bft) 97,87 %
11.02.2018 15:40 5,1 C 5,0 C 3,3 C 88 % 0 lf 1000,7 hPa 0,0 l/m 0 min 0 min 134 W/m 22,5 km/h (4 Bft) 97,87 %
11.02.2018 15:42 5,1 C 5,0 C 3,3 C 88 % 0 lf 1000,7 hPa 0,0 l/m 0 min 0 min 125 W/m 20,3 km/h (4 Bft) 100,00 %
11.02.2018 15:44 5,1 C 5,0 C 3,3 C 88 % 0 lf 1000,7 hPa 0,0 l/m 0 min 0 min 116 W/m 18,0 km/h (3 Bft) 97,87 %
11.02.2018 15:46 5,1 C 5,0 C 3,3 C 88 % 0 lf 1000,7 hPa 0,0 l/m 0 min 0 min 108 W/m 18,0 km/h (3 Bft) 100,00 %
11.02.2018 15:48 5,1 C 5,0 C 3,3 C 88 % 0 lf 1000,8 hPa 0,0 l/m 0 min 0 min 107 W/m 20,3 km/h (4 Bft) 97,87 %
11.02.2018 15:50 5,1 C 5,0 C 3,3 C 87 % 0 lf 1000,8 hPa 0,0 l/m 0 min 0 min 110 W/m 24,8 km/h (4 Bft) 100,00 %
11.02.2018 15:52 5,1 C 5,0 C 3,3 C 87 % 0 lf 1000,8 hPa 0,0 l/m 0 min 0 min 101 W/m 13,5 km/h (3 Bft) 97,87 %
11.02.2018 15:54 5,1 C 5,0 C 3,3 C 87 % 0 lf 1000,8 hPa 0,0 l/m 0 min 0 min 93 W/m 22,5 km/h (4 Bft) 97,87 %
11.02.2018 15:56 5,1 C 4,4 C 3,3 C 87 % 0 lf 1000,9 hPa 0,0 l/m 0 min 0 min 86 W/m 24,8 km/h (4 Bft) 95,65 %
11.02.2018 15:58 5,1 C 4,4 C 3,3 C 87 % 0 lf 1001,0 hPa 0,0 l/m 0 min 0 min 87 W/m 27,0 km/h (4 Bft) 87,23 %
11.02.2018 16:00 5,1 C 4,4 C 3,3 C 87 % 0 lf 1001,0 hPa 0,0 l/m 0 min 0 min 86 W/m 20,3 km/h (4 Bft) 97,87 %
11.02.2018 16:02 5,1 C 4,4 C 3,3 C 87 % 0 lf 1001,0 hPa 0,0 l/m 0 min 0 min 88 W/m 24,8 km/h (4 Bft) 97,87 %
11.02.2018 16:04 5,1 C 5,0 C 3,3 C 87 % 0 lf 1001,0 hPa 0,0 l/m 0 min 0 min 83 W/m 22,5 km/h (4 Bft) 97,87 %
11.02.2018 16:06 5,1 C 4,4 C 3,3 C 87 % 0 lf 1001,1 hPa 0,0 l/m 0 min 0 min 78 W/m 22,5 km/h (4 Bft) 97,87 %
11.02.2018 16:08 5,1 C 5,0 C 3,3 C 87 % 0 lf 1001,0 hPa 0,0 l/m 0 min 0 min 71 W/m 13,5 km/h (3 Bft) 97,83 %
11.02.2018 16:10 5,1 C 5,0 C 3,3 C 87 % 0 lf 1001,1 hPa 0,0 l/m 0 min 0 min 68 W/m 22,5 km/h (4 Bft) 93,62 %
11.02.2018 16:12 5,1 C 5,0 C 3,3 C 87 % 0 lf 1001,1 hPa 0,0 l/m 0 min 0 min 63 W/m 20,3 km/h (4 Bft) 97,87 %
11.02.2018 16:14 5,1 C 5,0 C 3,3 C 87 % 0 lf 1001,1 hPa 0,0 l/m 0 min 0 min 64 W/m 13,5 km/h (3 Bft) 95,74 %
11.02.2018 16:16 5,2 C 5,0 C 3,3 C 87 % 0 lf 1001,2 hPa 0,0 l/m 0 min 0 min 64 W/m 20,3 km/h (4 Bft) 95,74 %
11.02.2018 16:18 5,1 C 5,6 C 3,3 C 87 % 0 lf 1001,2 hPa 0,0 l/m 0 min 0 min 73 W/m 22,5 km/h (4 Bft) 97,87 %
11.02.2018 16:20 5,2 C 5,6 C 3,3 C 87 % 0 lf 1001,2 hPa 0,0 l/m 0 min 0 min 85 W/m 20,3 km/h (4 Bft) 97,83 %
11.02.2018 16:22 5,2 C 5,6 C 3,3 C 87 % 0 lf 1001,2 hPa 0,0 l/m 0 min 0 min 89 W/m 15,8 km/h (3 Bft) 97,87 %
11.02.2018 16:24 5,2 C 5,6 C 3,3 C 87 % 0 lf 1001,2 hPa 0,0 l/m 0 min 0 min 91 W/m 15,8 km/h (3 Bft) 95,74 %
11.02.2018 16:26 5,2 C 5,6 C 3,3 C 87 % 0 lf 1001,2 hPa 0,0 l/m 2 min 0 min 97 W/m 13,5 km/h (3 Bft) 97,87 %
11.02.2018 16:28 5,2 C 6,1 C 3,3 C 87 % 0 lf 1001,2 hPa 0,0 l/m 2 min 0 min 97 W/m 22,5 km/h (4 Bft) 97,87 %
11.02.2018 16:30 5,2 C 6,1 C 3,3 C 87 % 0 lf 1001,2 hPa 0,0 l/m 2 min 0 min 94 W/m 18,0 km/h (3 Bft) 95,74 %
11.02.2018 16:32 5,2 C 5,6 C 3,3 C 87 % 0 lf 1001,3 hPa 0,0 l/m 2 min 0 min 92 W/m 22,5 km/h (4 Bft) 91,30 %
11.02.2018 16:34 5,2 C 6,1 C 3,3 C 86 % 0 lf 1001,2 hPa 0,0 l/m 2 min 0 min 104 W/m 13,5 km/h (3 Bft) 97,87 %
11.02.2018 16:36 5,2 C 6,1 C 3,3 C 86 % 0 lf 1001,2 hPa 0,0 l/m 2 min 0 min 130 W/m 22,5 km/h (4 Bft) 93,62 %
11.02.2018 16:38 5,2 C 6,1 C 3,3 C 85 % 0 lf 1001,2 hPa 0,0 l/m 2 min 0 min 131 W/m 29,3 km/h (5 Bft) 93,62 %
11.02.2018 16:40 5,2 C 6,1 C 3,3 C 85 % 0 lf 1001,3 hPa 0,0 l/m 2 min 0 min 129 W/m 29,3 km/h (5 Bft) 95,74 %
11.02.2018 16:42 5,2 C 6,1 C 3,3 C 84 % 0 lf 1001,3 hPa 0,0 l/m 2 min 0 min 108 W/m 22,5 km/h (4 Bft) 95,74 %
11.02.2018 16:44 5,3 C 6,1 C 3,3 C 83 % 0 lf 1001,4 hPa 0,0 l/m 2 min 0 min 92 W/m 29,3 km/h (5 Bft) 97,83 %
11.02.2018 16:46 5,3 C 6,1 C 3,3 C 82 % 0 lf 1001,5 hPa 0,0 l/m 2 min 0 min 82 W/m 27,0 km/h (4 Bft) 97,87 %
11.02.2018 16:48 5,3 C 6,1 C 3,3 C 81 % 0 lf 1001,5 hPa 0,0 l/m 2 min 2 min 76 W/m 18,0 km/h (3 Bft) 95,74 %
11.02.2018 16:50 5,4 C 6,1 C 3,3 C 81 % 0 lf 1001,6 hPa 0,0 l/m 2 min 0 min 88 W/m 27,0 km/h (4 Bft) 95,74 %
11.02.2018 16:52 5,4 C 6,1 C 3,3 C 81 % 0 lf 1001,6 hPa 0,0 l/m 2 min 0 min 102 W/m 38,3 km/h (5 Bft) 95,74 %
11.02.2018 16:54 5,4 C 6,1 C 2,8 C 80 % 0 lf 1001,6 hPa 0,0 l/m 2 min 0 min 69 W/m 24,8 km/h (4 Bft) 95,74 %
11.02.2018 16:56 5,4 C 5,6 C 2,8 C 79 % 0 lf 1001,6 hPa 0,0 l/m 0 min 0 min 43 W/m 29,3 km/h (5 Bft) 95,65 %
11.02.2018 16:58 5,3 C 5,6 C 2,2 C 79 % 0 lf 1001,6 hPa 0,0 l/m 0 min 0 min 33 W/m 20,3 km/h (4 Bft) 95,74 %
11.02.2018 17:00 5,3 C 5,0 C 2,2 C 78 % 0 lf 1001,6 hPa 0,0 l/m 0 min 0 min 27 W/m 24,8 km/h (4 Bft) 95,74 %
11.02.2018 17:02 5,2 C 5,0 C 1,7 C 78 % 0 lf 1001,6 hPa 0,0 l/m 0 min 0 min 24 W/m 27,0 km/h (4 Bft) 91,49 %
11.02.2018 17:04 5,2 C 4,4 C 1,7 C 78 % 0 lf 1001,6 hPa 0,0 l/m 0 min 0 min 21 W/m 24,8 km/h (4 Bft) 93,62 %
11.02.2018 17:06 5,1 C 4,4 C 1,7 C 78 % 0 lf 1001,6 hPa 0,0 l/m 0 min 0 min 23 W/m 22,5 km/h (4 Bft) 95,74 %
11.02.2018 17:08 5,1 C 4,4 C 1,7 C 78 % 0 lf 1001,6 hPa 0,0 l/m 0 min 0 min 24 W/m 18,0 km/h (3 Bft) 94,44 %
11.02.2018 17:10 5,0 C 4,4 C 1,7 C 78 % 0 lf 1001,6 hPa 0,0 l/m 0 min 0 min 25 W/m 18,0 km/h (3 Bft) 93,48 %
11.02.2018 17:12 5,0 C 4,4 C 1,7 C 78 % 0 lf 1001,6 hPa 0,0 l/m 0 min 0 min 23 W/m 15,8 km/h (3 Bft) 96,61 %
11.02.2018 17:14 4,9 C 4,4 C 1,7 C 78 % 0 lf 1001,6 hPa 0,0 l/m 0 min 0 min 21 W/m 15,8 km/h (3 Bft) 95,74 %
11.02.2018 17:16 4,9 C 3,9 C 1,7 C 78 % 0 lf 1001,6 hPa 0,0 l/m 0 min 0 min 20 W/m 15,8 km/h (3 Bft) 97,87 %
11.02.2018 17:18 4,8 C 3,9 C 1,1 C 79 % 0 lf 1001,6 hPa 0,0 l/m 0 min 0 min 19 W/m 9,0 km/h (2 Bft) 97,87 %
11.02.2018 17:20 4,8 C 3,9 C 1,7 C 79 % 0 lf 1001,7 hPa 0,0 l/m 0 min 0 min 17 W/m 15,8 km/h (3 Bft) 97,83 %
11.02.2018 17:22 4,7 C 3,9 C 1,7 C 79 % 0 lf 1001,6 hPa 0,0 l/m 0 min 0 min 15 W/m 15,8 km/h (3 Bft) 100,00 %
11.02.2018 17:24 4,7 C 3,9 C 1,7 C 79 % 0 lf 1001,6 hPa 0,0 l/m 0 min 0 min 14 W/m 13,5 km/h (3 Bft) 91,43 %
11.02.2018 17:26 4,6 C 3,9 C 1,7 C 79 % 0 lf 1001,6 hPa 0,0 l/m 0 min 0 min 13 W/m 18,0 km/h (3 Bft) 97,87 %
11.02.2018 17:28 4,6 C 3,9 C 1,7 C 79 % 0 lf 1001,7 hPa 0,0 l/m 0 min 0 min 12 W/m 15,8 km/h (3 Bft) 97,87 %
11.02.2018 17:30 4,5 C 3,9 C 1,7 C 79 % 0 lf 1001,7 hPa 0,0 l/m 0 min 0 min 11 W/m 20,3 km/h (4 Bft) 100,00 %
11.02.2018 17:32 4,4 C 3,9 C 1,7 C 79 % 0 lf 1001,8 hPa 0,0 l/m 0 min 0 min 10 W/m 15,8 km/h (3 Bft) 100,00 %
11.02.2018 17:34 4,4 C 3,9 C 1,7 C 79 % 0 lf 1001,9 hPa 0,0 l/m 0 min 0 min 8 W/m 20,3 km/h (4 Bft) 97,87 %
11.02.2018 17:36 4,4 C 3,9 C 2,2 C 79 % 3 lf 1001,9 hPa 0,0 l/m 0 min 0 min 7 W/m 27,0 km/h (4 Bft) 100,00 %
11.02.2018 17:38 4,3 C 3,9 C 2,2 C 79 % 8 lf 1001,9 hPa 0,0 l/m 0 min 0 min 7 W/m 27,0 km/h (4 Bft) 100,00 %
11.02.2018 17:40 4,3 C 3,9 C 2,2 C 79 % 4 lf 1001,8 hPa 0,0 l/m 0 min 0 min 6 W/m 33,8 km/h (5 Bft) 100,00 %
11.02.2018 17:42 4,3 C 3,9 C 2,2 C 79 % 2 lf 1001,9 hPa 0,0 l/m 0 min 0 min 5 W/m 22,5 km/h (4 Bft) 93,62 %
11.02.2018 17:44 4,2 C 3,9 C 2,2 C 79 % 1 lf 1001,8 hPa 0,0 l/m 0 min 0 min 5 W/m 22,5 km/h (4 Bft) 98,28 %
11.02.2018 17:46 4,2 C 3,9 C 1,7 C 79 % 0 lf 1001,8 hPa 0,0 l/m 0 min 0 min 5 W/m 27,0 km/h (4 Bft) 100,00 %
11.02.2018 17:48 4,2 C 3,9 C 1,7 C 79 % 0 lf 1001,9 hPa 0,0 l/m 0 min 0 min 3 W/m 40,6 km/h (6 Bft) 97,87 %
11.02.2018 17:50 4,2 C 3,9 C 1,7 C 79 % 0 lf 1002,0 hPa 0,0 l/m 0 min 0 min 0 W/m 27,0 km/h (4 Bft) 98,31 %
11.02.2018 17:52 4,1 C 3,9 C 1,7 C 79 % 0 lf 1002,0 hPa 0,0 l/m 0 min 0 min 0 W/m 22,5 km/h (4 Bft) 97,87 %
11.02.2018 17:54 4,1 C 3,9 C 1,7 C 79 % 0 lf 1002,0 hPa 0,0 l/m 0 min 0 min 0 W/m 22,5 km/h (4 Bft) 94,29 %
11.02.2018 17:56 4,1 C 3,3 C 1,7 C 79 % 0 lf 1002,0 hPa 0,0 l/m 0 min 0 min 0 W/m 27,0 km/h (4 Bft) 95,65 %
11.02.2018 17:58 4,1 C 3,3 C 1,7 C 79 % 0 lf 1002,0 hPa 0,0 l/m 0 min 0 min 0 W/m 33,8 km/h (5 Bft) 98,31 %
11.02.2018 18:00 4,0 C 3,3 C 1,7 C 80 % 0 lf 1002,0 hPa 0,0 l/m 0 min 0 min 0 W/m 22,5 km/h (4 Bft) 94,29 %
11.02.2018 18:02 4,0 C 3,3 C 1,7 C 80 % 0 lf 1002,0 hPa 0,0 l/m 0 min 0 min 0 W/m 27,0 km/h (4 Bft) 98,31 %
11.02.2018 18:04 3,9 C 3,3 C 1,7 C 79 % 0 lf 1002,0 hPa 0,0 l/m 0 min 0 min 0 W/m 22,5 km/h (4 Bft) 94,29 %
11.02.2018 18:06 3,9 C 3,3 C 1,7 C 80 % 0 lf 1001,9 hPa 0,0 l/m 0 min 0 min 0 W/m 15,8 km/h (3 Bft) 95,83 %
11.02.2018 18:08 3,9 C 3,3 C 1,1 C 80 % 0 lf 1002,0 hPa 0,0 l/m 0 min 0 min 0 W/m 27,0 km/h (4 Bft) 97,83 %
11.02.2018 18:10 3,8 C 3,3 C 1,1 C 80 % 0 lf 1002,1 hPa 0,0 l/m 0 min 0 min 0 W/m 27,0 km/h (4 Bft) 97,87 %
11.02.2018 18:12 3,8 C 3,3 C 1,7 C 80 % 0 lf 1002,1 hPa 0,0 l/m 0 min 0 min 0 W/m 33,8 km/h (5 Bft) 97,87 %
11.02.2018 18:14 3,7 C 2,8 C 1,1 C 80 % 0 lf 1002,2 hPa 0,0 l/m 0 min 0 min 0 W/m 18,0 km/h (3 Bft) 97,87 %
11.02.2018 18:16 3,7 C 2,8 C 1,1 C 80 % 0 lf 1002,3 hPa 0,0 l/m 0 min 0 min 0 W/m 22,5 km/h (4 Bft) 97,87 %
11.02.2018 18:18 3,7 C 2,8 C 1,1 C 80 % 0 lf 1002,3 hPa 0,0 l/m 0 min 0 min 0 W/m 22,5 km/h (4 Bft) 95,74 %
11.02.2018 18:20 3,6 C 3,3 C 1,7 C 80 % 0 lf 1002,4 hPa 0,0 l/m 0 min 0 min 0 W/m 22,5 km/h (4 Bft) 96,55 %
11.02.2018 18:22 3,6 C 3,3 C 1,7 C 80 % 0 lf 1002,5 hPa 0,0 l/m 0 min 0 min 0 W/m 27,0 km/h (4 Bft) 100,00 %
11.02.2018 18:24 3,6 C 3,3 C 1,7 C 80 % 0 lf 1002,4 hPa 0,0 l/m 0 min 0 min 0 W/m 22,5 km/h (4 Bft) 97,87 %
11.02.2018 18:26 3,6 C 3,3 C 1,7 C 80 % 0 lf 1002,4 hPa 0,0 l/m 0 min 0 min 0 W/m 24,8 km/h (4 Bft) 97,87 %
11.02.2018 18:28 3,6 C 3,3 C 1,7 C 80 % 0 lf 1002,5 hPa 0,0 l/m 0 min 0 min 0 W/m 15,8 km/h (3 Bft) 95,74 %
11.02.2018 18:30 3,6 C 3,3 C 1,7 C 81 % 0 lf 1002,5 hPa 0,0 l/m 0 min 0 min 0 W/m 15,8 km/h (3 Bft) 95,74 %
11.02.2018 18:32 3,6 C 3,3 C 1,7 C 81 % 0 lf 1002,5 hPa 0,0 l/m 0 min 0 min 0 W/m 22,5 km/h (4 Bft) 97,83 %
11.02.2018 18:34 3,6 C 3,3 C 1,7 C 81 % 0 lf 1002,6 hPa 0,0 l/m 0 min 0 min 0 W/m 24,8 km/h (4 Bft) 95,74 %
11.02.2018 18:36 3,6 C 3,3 C 1,7 C 81 % 0 lf 1002,5 hPa 0,0 l/m 0 min 0 min 0 W/m 20,3 km/h (4 Bft) 95,74 %
11.02.2018 18:38 3,6 C 3,3 C 1,7 C 81 % 0 lf 1002,5 hPa 0,0 l/m 0 min 0 min 0 W/m 18,0 km/h (3 Bft) 93,62 %
11.02.2018 18:40 3,6 C 3,3 C 1,7 C 82 % 0 lf 1002,5 hPa 0,0 l/m 0 min 0 min 0 W/m 20,3 km/h (4 Bft) 93,62 %
11.02.2018 18:42 3,6 C 2,8 C 1,7 C 82 % 0 lf 1002,5 hPa 0,0 l/m 0 min 0 min 0 W/m 15,8 km/h (3 Bft) 95,74 %
11.02.2018 18:44 3,5 C 2,8 C 1,1 C 82 % 0 lf 1002,6 hPa 0,0 l/m 0 min 0 min 0 W/m 13,5 km/h (3 Bft) 95,65 %
11.02.2018 18:46 3,5 C 2,8 C 1,1 C 82 % 0 lf 1002,7 hPa 0,0 l/m 0 min 0 min 0 W/m 13,5 km/h (3 Bft) 93,62 %
11.02.2018 18:48 3,5 C 2,8 C 1,1 C 82 % 0 lf 1002,8 hPa 0,0 l/m 0 min 0 min 0 W/m 13,5 km/h (3 Bft) 95,74 %
11.02.2018 18:50 3,4 C 2,8 C 0,6 C 82 % 0 lf 1002,6 hPa 0,0 l/m 0 min 0 min 0 W/m 15,8 km/h (3 Bft) 88,14 %
11.02.2018 18:52 3,4 C 2,8 C 0,6 C 82 % 0 lf 1002,7 hPa 0,0 l/m 0 min 0 min 0 W/m 24,8 km/h (4 Bft) 94,29 %
11.02.2018 18:54 3,3 C 2,8 C 1,1 C 82 % 0 lf 1002,7 hPa 0,0 l/m 0 min 0 min 0 W/m 15,8 km/h (3 Bft) 89,13 %
11.02.2018 18:56 3,3 C 2,8 C 1,1 C 83 % 0 lf 1002,7 hPa 0,0 l/m 0 min 0 min 0 W/m 20,3 km/h (4 Bft) 91,49 %
11.02.2018 18:58 3,3 C 2,8 C 0,6 C 83 % 0 lf 1002,8 hPa 0,0 l/m 0 min 0 min 0 W/m 13,5 km/h (3 Bft) 93,62 %
11.02.2018 19:00 3,2 C 2,2 C 0,6 C 83 % 0 lf 1002,9 hPa 0,0 l/m 0 min 0 min 0 W/m 13,5 km/h (3 Bft) 91,49 %
11.02.2018 19:02 3,2 C 2,2 C 0,6 C 83 % 0 lf 1002,8 hPa 0,0 l/m 0 min 0 min 0 W/m 13,5 km/h (3 Bft) 91,49 %
11.02.2018 19:04 3,2 C 2,2 C 0,6 C 83 % 0 lf 1002,9 hPa 0,0 l/m 0 min 0 min 0 W/m 13,5 km/h (3 Bft) 93,62 %
11.02.2018 19:06 3,1 C 2,2 C 0,6 C 83 % 0 lf 1002,7 hPa 0,0 l/m 0 min 0 min 0 W/m 13,5 km/h (3 Bft) 93,48 %
11.02.2018 19:08 3,1 C 2,2 C 0,6 C 83 % 0 lf 1002,8 hPa 0,0 l/m 0 min 0 min 0 W/m 20,3 km/h (4 Bft) 93,62 %
11.02.2018 19:10 3,0 C 2,2 C 0,6 C 83 % 0 lf 1002,9 hPa 0,0 l/m 0 min 0 min 0 W/m 18,0 km/h (3 Bft) 91,49 %
11.02.2018 19:12 3,0 C 2,2 C 0,6 C 83 % 0 lf 1002,8 hPa 0,0 l/m 0 min 0 min 0 W/m 15,8 km/h (3 Bft) 95,74 %
11.02.2018 19:14 2,9 C 2,2 C 0,6 C 83 % 0 lf 1002,8 hPa 0,0 l/m 0 min 0 min 0 W/m 15,8 km/h (3 Bft) 95,74 %
11.02.2018 19:16 2,9 C 2,2 C 0,6 C 83 % 0 lf 1002,9 hPa 0,0 l/m 0 min 0 min 0 W/m 15,8 km/h (3 Bft) 95,74 %
11.02.2018 19:18 2,9 C 2,2 C 0,6 C 84 % 0 lf 1002,9 hPa 0,0 l/m 0 min 0 min 0 W/m 18,0 km/h (3 Bft) 95,65 %
11.02.2018 19:20 2,8 C 2,2 C 0,6 C 84 % 0 lf 1002,9 hPa 0,0 l/m 0 min 0 min 0 W/m 20,3 km/h (4 Bft) 93,22 %
11.02.2018 19:22 2,8 C 2,2 C 0,6 C 84 % 0 lf 1002,9 hPa 0,0 l/m 0 min 0 min 0 W/m 15,8 km/h (3 Bft) 91,43 %
11.02.2018 19:24 2,8 C 2,2 C 0,6 C 84 % 0 lf 1002,9 hPa 0,0 l/m 0 min 0 min 0 W/m 15,8 km/h (3 Bft) 93,62 %
11.02.2018 19:26 2,7 C 2,2 C 0,6 C 84 % 0 lf 1002,8 hPa 0,0 l/m 0 min 0 min 0 W/m 13,5 km/h (3 Bft) 95,74 %
11.02.2018 19:28 2,7 C 2,2 C 0,6 C 84 % 0 lf 1002,9 hPa 0,0 l/m 0 min 0 min 0 W/m 24,8 km/h (4 Bft) 91,49 %
11.02.2018 19:30 2,7 C 2,2 C 0,6 C 84 % 0 lf 1002,9 hPa 0,0 l/m 0 min 0 min 0 W/m 15,8 km/h (3 Bft) 95,65 %
11.02.2018 19:32 2,7 C 2,2 C 0,6 C 84 % 0 lf 1003,0 hPa 0,0 l/m 0 min 0 min 0 W/m 18,0 km/h (3 Bft) 95,74 %
11.02.2018 19:34 2,7 C 2,2 C 0,6 C 85 % 0 lf 1002,9 hPa 0,0 l/m 0 min 0 min 0 W/m 11,3 km/h (2 Bft) 93,62 %
11.02.2018 19:36 2,6 C 2,2 C 0,6 C 85 % 0 lf 1003,0 hPa 0,0 l/m 0 min 0 min 0 W/m 11,3 km/h (2 Bft) 95,74 %
11.02.2018 19:38 2,6 C 2,2 C 0,6 C 85 % 0 lf 1002,9 hPa 0,0 l/m 0 min 0 min 0 W/m 11,3 km/h (2 Bft) 93,62 %
11.02.2018 19:40 2,6 C 2,2 C 0,6 C 85 % 0 lf 1003,0 hPa 0,0 l/m 0 min 0 min 0 W/m 15,8 km/h (3 Bft) 95,74 %
11.02.2018 19:42 2,5 C 2,2 C 0,6 C 85 % 0 lf 1003,0 hPa 0,0 l/m 0 min 0 min 0 W/m 13,5 km/h (3 Bft) 95,65 %
11.02.2018 19:44 2,5 C 2,2 C 0,6 C 84 % 0 lf 1003,0 hPa 0,0 l/m 0 min 0 min 0 W/m 13,5 km/h (3 Bft) 97,87 %
11.02.2018 19:46 2,5 C 1,7 C 0,6 C 84 % 0 lf 1003,0 hPa 0,0 l/m 0 min 0 min 0 W/m 15,8 km/h (3 Bft) 97,87 %
11.02.2018 19:48 2,4 C 1,7 C 0,6 C 84 % 0 lf 1003,0 hPa 0,0 l/m 0 min 0 min 0 W/m 15,8 km/h (3 Bft) 97,87 %
11.02.2018 19:50 2,4 C 1,7 C 0,0 C 84 % 0 lf 1003,0 hPa 0,0 l/m 0 min 0 min 0 W/m 13,5 km/h (3 Bft) 98,28 %
11.02.2018 19:52 2,4 C 1,7 C 0,0 C 84 % 0 lf 1003,0 hPa 0,0 l/m 0 min 0 min 0 W/m 13,5 km/h (3 Bft) 100,00 %
11.02.2018 19:54 2,4 C 1,7 C 0,0 C 84 % 0 lf 1003,0 hPa 0,0 l/m 0 min 0 min 0 W/m 15,8 km/h (3 Bft) 100,00 %
11.02.2018 19:56 2,4 C 1,7 C 0,0 C 84 % 0 lf 1003,1 hPa 0,0 l/m 0 min 0 min 0 W/m 13,5 km/h (3 Bft) 97,87 %
11.02.2018 19:58 2,3 C 1,7 C 0,0 C 84 % 0 lf 1003,1 hPa 0,0 l/m 0 min 0 min 0 W/m 13,5 km/h (3 Bft) 95,74 %
11.02.2018 20:00 2,3 C 1,7 C 0,0 C 85 % 0 lf 1003,1 hPa 0,0 l/m 0 min 0 min 0 W/m 13,5 km/h (3 Bft) 100,00 %
11.02.2018 20:02 2,3 C 1,7 C 0,0 C 85 % 0 lf 1003,2 hPa 0,0 l/m 0 min 0 min 0 W/m 18,0 km/h (3 Bft) 100,00 %
11.02.2018 20:04 2,3 C 1,7 C 0,0 C 85 % 0 lf 1003,3 hPa 0,0 l/m 0 min 0 min 0 W/m 18,0 km/h (3 Bft) 100,00 %
11.02.2018 20:06 2,3 C 1,7 C 0,0 C 85 % 0 lf 1003,3 hPa 0,0 l/m 0 min 0 min 0 W/m 18,0 km/h (3 Bft) 100,00 %
11.02.2018 20:08 2,2 C 1,7 C 0,0 C 85 % 0 lf 1003,3 hPa 0,0 l/m 0 min 0 min 0 W/m 22,5 km/h (4 Bft) 100,00 %
11.02.2018 20:10 2,2 C 1,7 C 0,0 C 85 % 0 lf 1003,3 hPa 0,0 l/m 0 min 0 min 0 W/m 18,0 km/h (3 Bft) 97,87 %
11.02.2018 20:12 2,2 C 1,7 C 0,0 C 85 % 0 lf 1003,3 hPa 0,0 l/m 0 min 0 min 0 W/m 18,0 km/h (3 Bft) 97,87 %
11.02.2018 20:14 2,2 C 1,7 C 0,0 C 85 % 0 lf 1003,3 hPa 0,0 l/m 0 min 0 min 0 W/m 15,8 km/h (3 Bft) 95,74 %
11.02.2018 20:16 2,2 C 1,7 C 0,0 C 85 % 0 lf 1003,3 hPa 0,0 l/m 0 min 0 min 0 W/m 15,8 km/h (3 Bft) 100,00 %
11.02.2018 20:18 2,2 C 1,7 C 0,0 C 85 % 0 lf 1003,4 hPa 0,0 l/m 0 min 0 min 0 W/m 20,3 km/h (4 Bft) 97,87 %
11.02.2018 20:20 2,2 C 1,7 C 0,0 C 85 % 0 lf 1003,4 hPa 0,0 l/m 0 min 0 min 0 W/m 15,8 km/h (3 Bft) 100,00 %
11.02.2018 20:22 2,2 C 1,7 C 0,0 C 85 % 0 lf 1003,3 hPa 0,0 l/m 0 min 0 min 0 W/m 13,5 km/h (3 Bft) 100,00 %
11.02.2018 20:24 2,1 C 1,7 C 0,0 C 85 % 0 lf 1003,4 hPa 0,0 l/m 0 min 0 min 0 W/m 18,0 km/h (3 Bft) 100,00 %
11.02.2018 20:26 2,1 C 1,7 C 0,0 C 85 % 0 lf 1003,5 hPa 0,0 l/m 0 min 0 min 0 W/m 18,0 km/h (3 Bft) 95,74 %
11.02.2018 20:28 2,1 C 1,7 C 0,0 C 85 % 0 lf 1003,5 hPa 0,0 l/m 0 min 0 min 0 W/m 13,5 km/h (3 Bft) 100,00 %
11.02.2018 20:30 2,1 C 1,7 C 0,0 C 85 % 0 lf 1003,6 hPa 0,0 l/m 0 min 0 min 0 W/m 20,3 km/h (4 Bft) 97,87 %
11.02.2018 20:32 2,1 C 1,7 C 0,0 C 85 % 0 lf 1003,5 hPa 0,0 l/m 0 min 0 min 0 W/m 18,0 km/h (3 Bft) 95,74 %
11.02.2018 20:34 2,1 C 1,7 C 0,0 C 85 % 0 lf 1003,6 hPa 0,0 l/m 0 min 0 min 0 W/m 18,0 km/h (3 Bft) 97,87 %
11.02.2018 20:36 2,1 C 1,7 C 0,0 C 85 % 0 lf 1003,6 hPa 0,0 l/m 0 min 0 min 0 W/m 20,3 km/h (4 Bft) 95,74 %
11.02.2018 20:38 2,1 C 1,7 C 0,0 C 85 % 0 lf 1003,6 hPa 0,0 l/m 0 min 0 min 0 W/m 13,5 km/h (3 Bft) 97,87 %
11.02.2018 20:40 2,1 C 1,7 C 0,0 C 85 % 0 lf 1003,6 hPa 0,0 l/m 0 min 0 min 0 W/m 22,5 km/h (4 Bft) 97,83 %
11.02.2018 20:42 2,1 C 1,7 C 0,0 C 85 % 0 lf 1003,6 hPa 0,0 l/m 0 min 0 min 0 W/m 13,5 km/h (3 Bft) 95,74 %
11.02.2018 20:44 2,1 C 1,7 C 0,0 C 86 % 0 lf 1003,5 hPa 0,0 l/m 0 min 0 min 0 W/m 18,0 km/h (3 Bft) 95,74 %
11.02.2018 20:46 2,1 C 1,7 C 0,0 C 86 % 0 lf 1003,6 hPa 0,0 l/m 0 min 0 min 0 W/m 15,8 km/h (3 Bft) 97,87 %
11.02.2018 20:48 2,1 C 1,7 C 0,0 C 86 % 0 lf 1003,5 hPa 0,0 l/m 0 min 0 min 0 W/m 22,5 km/h (4 Bft) 97,87 %
11.02.2018 20:50 2,1 C 1,7 C 0,0 C 86 % 0 lf 1003,4 hPa 0,0 l/m 0 min 0 min 0 W/m 18,0 km/h (3 Bft) 98,28 %
11.02.2018 20:52 2,0 C 1,7 C 0,0 C 86 % 0 lf 1003,5 hPa 0,0 l/m 0 min 0 min 0 W/m 18,0 km/h (3 Bft) 97,14 %
11.02.2018 20:54 2,0 C 1,7 C 0,0 C 86 % 0 lf 1003,6 hPa 0,0 l/m 0 min 0 min 0 W/m 15,8 km/h (3 Bft) 95,74 %
11.02.2018 20:56 2,0 C 1,7 C 0,0 C 86 % 0 lf 1003,6 hPa 0,0 l/m 0 min 0 min 0 W/m 20,3 km/h (4 Bft) 97,87 %
11.02.2018 20:58 2,0 C 1,7 C 0,0 C 86 % 0 lf 1003,6 hPa 0,0 l/m 0 min 0 min 0 W/m 15,8 km/h (3 Bft) 97,87 %
11.02.2018 21:00 2,0 C 1,7 C 0,0 C 86 % 0 lf 1003,6 hPa 0,0 l/m 0 min 0 min 0 W/m 15,8 km/h (3 Bft) 97,87 %
11.02.2018 21:02 1,9 C 1,1 C 0,0 C 86 % 0 lf 1003,6 hPa 0,0 l/m 0 min 0 min 0 W/m 20,3 km/h (4 Bft) 97,87 %
11.02.2018 21:04 1,9 C 1,1 C 0,0 C 86 % 0 lf 1003,6 hPa 0,0 l/m 0 min 0 min 0 W/m 20,3 km/h (4 Bft) 100,00 %
11.02.2018 21:06 1,9 C 1,1 C 0,0 C 86 % 0 lf 1003,7 hPa 0,0 l/m 0 min 0 min 0 W/m 20,3 km/h (4 Bft) 100,00 %
11.02.2018 21:08 1,9 C 1,1 C 0,0 C 87 % 0 lf 1003,7 hPa 0,0 l/m 0 min 0 min 0 W/m 18,0 km/h (3 Bft) 100,00 %
11.02.2018 21:10 1,9 C 1,1 C 0,0 C 87 % 0 lf 1003,7 hPa 0,0 l/m 0 min 0 min 0 W/m 15,8 km/h (3 Bft) 97,87 %
11.02.2018 21:12 1,9 C 1,1 C 0,0 C 87 % 0 lf 1003,7 hPa 0,0 l/m 0 min 0 min 0 W/m 15,8 km/h (3 Bft) 100,00 %
11.02.2018 21:14 1,9 C 1,7 C 0,0 C 87 % 0 lf 1003,7 hPa 0,0 l/m 0 min 0 min 0 W/m 24,8 km/h (4 Bft) 100,00 %
11.02.2018 21:16 1,9 C 1,7 C 0,0 C 87 % 0 lf 1003,7 hPa 0,0 l/m 0 min 0 min 0 W/m 22,5 km/h (4 Bft) 97,87 %
11.02.2018 21:18 1,9 C 1,7 C 0,0 C 87 % 0 lf 1003,7 hPa 0,0 l/m 0 min 0 min 0 W/m 18,0 km/h (3 Bft) 100,00 %
11.02.2018 21:20 1,9 C 1,7 C 0,0 C 87 % 0 lf 1003,7 hPa 0,0 l/m 0 min 0 min 0 W/m 15,8 km/h (3 Bft) 100,00 %
11.02.2018 21:22 1,9 C 1,7 C 0,0 C 87 % 0 lf 1003,7 hPa 0,0 l/m 0 min 0 min 0 W/m 24,8 km/h (4 Bft) 100,00 %
11.02.2018 21:24 1,8 C 1,7 C 0,0 C 87 % 0 lf 1003,8 hPa 0,0 l/m 0 min 0 min 0 W/m 22,5 km/h (4 Bft) 97,87 %
11.02.2018 21:26 1,8 C 1,7 C 0,0 C 87 % 0 lf 1003,8 hPa 0,0 l/m 0 min 0 min 0 W/m 18,0 km/h (3 Bft) 100,00 %
11.02.2018 21:28 1,8 C 1,7 C 0,0 C 87 % 0 lf 1003,8 hPa 0,0 l/m 0 min 0 min 0 W/m 18,0 km/h (3 Bft) 97,87 %
11.02.2018 21:30 1,8 C 1,7 C 0,0 C 87 % 0 lf 1003,8 hPa 0,0 l/m 0 min 0 min 0 W/m 15,8 km/h (3 Bft) 100,00 %
11.02.2018 21:32 1,8 C 1,7 C 0,6 C 87 % 0 lf 1003,8 hPa 0,0 l/m 0 min 0 min 0 W/m 22,5 km/h (4 Bft) 100,00 %
11.02.2018 21:34 1,8 C 1,7 C 0,6 C 88 % 0 lf 1003,9 hPa 0,0 l/m 0 min 0 min 0 W/m 20,3 km/h (4 Bft) 100,00 %
11.02.2018 21:36 1,8 C 1,7 C 0,6 C 88 % 0 lf 1004,0 hPa 0,0 l/m 0 min 0 min 0 W/m 15,8 km/h (3 Bft) 100,00 %
11.02.2018 21:38 1,8 C 1,7 C 0,0 C 88 % 0 lf 1004,0 hPa 0,0 l/m 0 min 0 min 0 W/m 15,8 km/h (3 Bft) 97,83 %
11.02.2018 21:40 1,8 C 1,7 C 0,6 C 88 % 0 lf 1004,1 hPa 0,0 l/m 0 min 0 min 0 W/m 18,0 km/h (3 Bft) 97,87 %
11.02.2018 21:42 1,8 C 1,7 C 0,0 C 88 % 0 lf 1004,1 hPa 0,0 l/m 0 min 0 min 0 W/m 22,5 km/h (4 Bft) 97,87 %
11.02.2018 21:44 1,8 C 1,7 C 0,6 C 88 % 0 lf 1004,1 hPa 0,0 l/m 0 min 0 min 0 W/m 31,5 km/h (5 Bft) 97,87 %
11.02.2018 21:46 1,8 C 1,7 C 0,6 C 88 % 0 lf 1004,2 hPa 0,0 l/m 0 min 0 min 0 W/m 22,5 km/h (4 Bft) 97,87 %
11.02.2018 21:48 1,8 C 1,7 C 0,0 C 88 % 0 lf 1004,2 hPa 0,0 l/m 0 min 0 min 0 W/m 22,5 km/h (4 Bft) 97,87 %
11.02.2018 21:50 1,8 C 1,7 C 0,0 C 88 % 0 lf 1004,3 hPa 0,0 l/m 0 min 0 min 0 W/m 20,3 km/h (4 Bft) 94,83 %
11.02.2018 21:52 1,8 C 1,7 C 0,0 C 88 % 0 lf 1004,3 hPa 0,0 l/m 0 min 0 min 0 W/m 24,8 km/h (4 Bft) 94,29 %
11.02.2018 21:54 1,8 C 1,7 C 0,6 C 88 % 0 lf 1004,3 hPa 0,0 l/m 0 min 0 min 0 W/m 18,0 km/h (3 Bft) 95,74 %
11.02.2018 21:56 1,8 C 1,7 C 0,6 C 88 % 0 lf 1004,3 hPa 0,0 l/m 0 min 0 min 0 W/m 18,0 km/h (3 Bft) 95,74 %
11.02.2018 21:58 1,8 C 1,7 C 0,6 C 88 % 0 lf 1004,2 hPa 0,0 l/m 0 min 0 min 0 W/m 20,3 km/h (4 Bft) 95,74 %
11.02.2018 22:00 1,8 C 1,7 C 0,6 C 88 % 0 lf 1004,2 hPa 0,0 l/m 0 min 0 min 0 W/m 18,0 km/h (3 Bft) 95,74 %
11.02.2018 22:02 1,8 C 1,7 C 0,0 C 88 % 0 lf 1004,2 hPa 0,0 l/m 0 min 0 min 0 W/m 18,0 km/h (3 Bft) 93,48 %
11.02.2018 22:04 1,8 C 1,7 C 0,0 C 88 % 0 lf 1004,3 hPa 0,0 l/m 0 min 0 min 0 W/m 18,0 km/h (3 Bft) 93,62 %
11.02.2018 22:06 1,8 C 1,7 C 0,6 C 88 % 0 lf 1004,2 hPa 0,0 l/m 0 min 0 min 0 W/m 27,0 km/h (4 Bft) 95,74 %
11.02.2018 22:08 1,8 C 1,7 C 0,6 C 88 % 1 lf 1004,4 hPa 0,0 l/m 0 min 0 min 0 W/m 24,8 km/h (4 Bft) 91,49 %
11.02.2018 22:10 1,8 C 1,7 C 0,6 C 89 % 0 lf 1004,4 hPa 0,0 l/m 0 min 0 min 0 W/m 29,3 km/h (5 Bft) 93,62 %
11.02.2018 22:12 1,8 C 1,7 C 0,6 C 89 % 0 lf 1004,4 hPa 0,0 l/m 0 min 0 min 0 W/m 29,3 km/h (5 Bft) 89,36 %
11.02.2018 22:14 1,8 C 1,7 C 0,6 C 88 % 0 lf 1004,4 hPa 0,0 l/m 0 min 0 min 0 W/m 27,0 km/h (4 Bft) 91,30 %
11.02.2018 22:16 1,8 C 1,7 C 0,6 C 89 % 0 lf 1004,4 hPa 0,0 l/m 0 min 0 min 0 W/m 22,5 km/h (4 Bft) 93,62 %
11.02.2018 22:18 1,8 C 1,7 C 0,6 C 89 % 0 lf 1004,4 hPa 0,0 l/m 0 min 0 min 0 W/m 31,5 km/h (5 Bft) 93,62 %
11.02.2018 22:20 1,8 C 1,7 C 0,6 C 89 % 0 lf 1004,5 hPa 0,0 l/m 0 min 0 min 0 W/m 31,5 km/h (5 Bft) 88,14 %
11.02.2018 22:22 1,8 C 1,7 C 0,0 C 89 % 0 lf 1004,5 hPa 0,0 l/m 0 min 0 min 0 W/m 20,3 km/h (4 Bft) 88,57 %
11.02.2018 22:24 1,8 C 1,7 C 0,0 C 89 % 0 lf 1004,5 hPa 0,0 l/m 0 min 0 min 0 W/m 24,8 km/h (4 Bft) 95,65 %
11.02.2018 22:26 1,8 C 1,1 C 0,0 C 89 % 0 lf 1004,6 hPa 0,0 l/m 0 min 0 min 0 W/m 31,5 km/h (5 Bft) 93,62 %
11.02.2018 22:28 1,7 C 1,1 C 0,0 C 89 % 0 lf 1004,5 hPa 0,0 l/m 0 min 0 min 0 W/m 22,5 km/h (4 Bft) 93,62 %
11.02.2018 22:30 1,7 C 1,1 C 0,0 C 90 % 0 lf 1004,5 hPa 0,0 l/m 0 min 0 min 0 W/m 22,5 km/h (4 Bft) 91,49 %
11.02.2018 22:32 1,7 C 1,1 C 0,0 C 89 % 0 lf 1004,6 hPa 0,0 l/m 0 min 0 min 0 W/m 22,5 km/h (4 Bft) 95,74 %
11.02.2018 22:34 1,7 C 1,1 C 0,0 C 90 % 0 lf 1004,5 hPa 0,0 l/m 0 min 0 min 0 W/m 22,5 km/h (4 Bft) 93,62 %
11.02.2018 22:36 1,7 C 1,1 C 0,0 C 90 % 0 lf 1004,7 hPa 0,0 l/m 0 min 0 min 0 W/m 22,5 km/h (4 Bft) 93,48 %
11.02.2018 22:38 1,6 C 1,1 C 0,0 C 90 % 0 lf 1004,7 hPa 0,0 l/m 0 min 0 min 0 W/m 24,8 km/h (4 Bft) 93,62 %
11.02.2018 22:40 1,6 C 1,1 C 0,0 C 90 % 0 lf 1004,7 hPa 0,0 l/m 0 min 0 min 0 W/m 24,8 km/h (4 Bft) 91,49 %
11.02.2018 22:42 1,6 C 1,1 C 0,0 C 90 % 0 lf 1004,8 hPa 0,0 l/m 0 min 0 min 0 W/m 15,8 km/h (3 Bft) 95,74 %
11.02.2018 22:44 1,6 C 1,1 C 0,0 C 90 % 0 lf 1004,7 hPa 0,0 l/m 0 min 0 min 0 W/m 22,5 km/h (4 Bft) 95,74 %
11.02.2018 22:46 1,6 C 1,1 C 0,0 C 90 % 0 lf 1004,7 hPa 0,0 l/m 0 min 0 min 0 W/m 18,0 km/h (3 Bft) 95,74 %
11.02.2018 22:48 1,6 C 1,1 C 0,0 C 90 % 0 lf 1004,8 hPa 0,0 l/m 0 min 0 min 0 W/m 18,0 km/h (3 Bft) 91,30 %
11.02.2018 22:50 1,6 C 1,1 C 0,0 C 91 % 0 lf 1004,8 hPa 0,0 l/m 0 min 0 min 0 W/m 20,3 km/h (4 Bft) 93,22 %
11.02.2018 22:52 1,6 C 1,1 C 0,0 C 91 % 0 lf 1004,8 hPa 0,0 l/m 0 min 0 min 0 W/m 13,5 km/h (3 Bft) 97,14 %
11.02.2018 22:54 1,6 C 1,1 C 0,0 C 91 % 0 lf 1004,8 hPa 0,0 l/m 0 min 0 min 0 W/m 18,0 km/h (3 Bft) 95,74 %
11.02.2018 22:56 1,5 C 1,1 C -0,6 C 91 % 1 lf 1004,8 hPa 0,0 l/m 0 min 0 min 0 W/m 15,8 km/h (3 Bft) 97,87 %
11.02.2018 22:58 1,5 C 1,1 C -0,6 C 91 % 1 lf 1004,7 hPa 0,0 l/m 0 min 0 min 0 W/m 13,5 km/h (3 Bft) 95,74 %
11.02.2018 23:00 1,5 C 1,1 C -0,6 C 91 % 0 lf 1004,8 hPa 0,0 l/m 0 min 0 min 0 W/m 20,3 km/h (4 Bft) 97,83 %
11.02.2018 23:02 1,4 C 1,1 C -0,6 C 91 % 0 lf 1004,7 hPa 0,0 l/m 0 min 0 min 0 W/m 24,8 km/h (4 Bft) 95,74 %
11.02.2018 23:04 1,4 C 1,1 C 0,0 C 91 % 0 lf 1004,8 hPa 0,0 l/m 0 min 0 min 0 W/m 18,0 km/h (3 Bft) 95,74 %
11.02.2018 23:06 1,4 C 1,1 C 0,0 C 91 % 0 lf 1004,8 hPa 0,0 l/m 0 min 0 min 0 W/m 18,0 km/h (3 Bft) 95,74 %
11.02.2018 23:08 1,4 C 1,1 C 0,0 C 91 % 0 lf 1004,8 hPa 0,0 l/m 0 min 0 min 0 W/m 20,3 km/h (4 Bft) 97,87 %
11.02.2018 23:10 1,4 C 1,1 C 0,0 C 91 % 1 lf 1004,8 hPa 0,0 l/m 0 min 2 min 0 W/m 27,0 km/h (4 Bft) 97,83 %
11.02.2018 23:12 1,4 C 1,1 C 0,0 C 91 % 2 lf 1004,8 hPa 0,0 l/m 0 min 0 min 0 W/m 33,8 km/h (5 Bft) 97,87 %
11.02.2018 23:14 1,4 C 1,1 C 0,0 C 91 % 1 lf 1004,9 hPa 0,0 l/m 0 min 0 min 0 W/m 29,3 km/h (5 Bft) 97,87 %
11.02.2018 23:16 1,4 C 1,1 C 0,0 C 92 % 1 lf 1004,9 hPa 0,0 l/m 0 min 0 min 0 W/m 27,0 km/h (4 Bft) 95,74 %
11.02.2018 23:18 1,5 C 1,1 C 0,0 C 92 % 0 lf 1004,8 hPa 0,0 l/m 0 min 0 min 0 W/m 29,3 km/h (5 Bft) 95,74 %
11.02.2018 23:20 1,5 C 1,1 C 0,0 C 92 % 0 lf 1004,9 hPa 0,0 l/m 0 min 0 min 0 W/m 29,3 km/h (5 Bft) 98,28 %
11.02.2018 23:22 1,5 C 1,1 C 0,0 C 92 % 1 lf 1004,8 hPa 0,0 l/m 0 min 0 min 0 W/m 27,0 km/h (4 Bft) 94,44 %
11.02.2018 23:24 1,5 C 1,1 C 0,0 C 92 % 1 lf 1004,9 hPa 0,0 l/m 0 min 0 min 0 W/m 33,8 km/h (5 Bft) 100,00 %
11.02.2018 23:26 1,5 C 1,1 C 0,0 C 92 % 0 lf 1004,9 hPa 0,0 l/m 0 min 0 min 0 W/m 31,5 km/h (5 Bft) 100,00 %
11.02.2018 23:28 1,5 C 1,1 C 0,0 C 92 % 0 lf 1004,9 hPa 0,0 l/m 0 min 0 min 0 W/m 27,0 km/h (4 Bft) 100,00 %
11.02.2018 23:30 1,5 C 1,1 C 0,0 C 92 % 0 lf 1005,0 hPa 0,0 l/m 0 min 0 min 0 W/m 22,5 km/h (4 Bft) 100,00 %
11.02.2018 23:32 1,5 C 1,1 C 0,0 C 92 % 0 lf 1005,1 hPa 0,0 l/m 0 min 0 min 0 W/m 27,0 km/h (4 Bft) 95,74 %
11.02.2018 23:34 1,5 C 1,1 C 0,0 C 92 % 0 lf 1005,1 hPa 0,0 l/m 0 min 0 min 0 W/m 31,5 km/h (5 Bft) 100,00 %
11.02.2018 23:36 1,4 C 1,1 C -0,6 C 92 % 0 lf 1005,1 hPa 0,0 l/m 0 min 0 min 0 W/m 22,5 km/h (4 Bft) 100,00 %
11.02.2018 23:38 1,4 C 1,1 C -0,6 C 92 % 0 lf 1005,0 hPa 0,0 l/m 0 min 0 min 0 W/m 22,5 km/h (4 Bft) 95,74 %
11.02.2018 23:40 1,4 C 1,1 C -0,6 C 92 % 0 lf 1005,2 hPa 0,0 l/m 0 min 0 min 0 W/m 22,5 km/h (4 Bft) 97,87 %
11.02.2018 23:42 1,4 C 0,6 C -0,6 C 92 % 0 lf 1005,1 hPa 0,0 l/m 0 min 0 min 0 W/m 22,5 km/h (4 Bft) 97,87 %
11.02.2018 23:44 1,4 C 0,6 C -0,6 C 92 % 0 lf 1005,1 hPa 0,0 l/m 0 min 0 min 0 W/m 20,3 km/h (4 Bft) 100,00 %
11.02.2018 23:46 1,3 C 0,6 C -0,6 C 92 % 0 lf 1005,1 hPa 0,0 l/m 0 min 0 min 0 W/m 22,5 km/h (4 Bft) 100,00 %
11.02.2018 23:48 1,3 C 0,6 C -0,6 C 92 % 0 lf 1005,1 hPa 0,0 l/m 0 min 0 min 0 W/m 18,0 km/h (3 Bft) 95,74 %
11.02.2018 23:50 1,3 C 0,6 C -0,6 C 92 % 0 lf 1005,2 hPa 0,0 l/m 0 min 0 min 0 W/m 22,5 km/h (4 Bft) 100,00 %
11.02.2018 23:52 1,2 C 1,1 C -0,6 C 92 % 0 lf 1005,1 hPa 0,0 l/m 0 min 0 min 0 W/m 24,8 km/h (4 Bft) 100,00 %
11.02.2018 23:54 1,2 C 1,1 C -0,6 C 92 % 0 lf 1005,2 hPa 0,0 l/m 0 min 0 min 0 W/m 22,5 km/h (4 Bft) 97,87 %
11.02.2018 23:56 1,2 C 1,1 C -0,6 C 92 % 0 lf 1005,2 hPa 0,0 l/m 0 min 0 min 0 W/m 29,3 km/h (5 Bft) 95,74 %
11.02.2018 23:58 1,2 C 1,1 C -0,6 C 92 % 0 lf 1005,2 hPa 0,0 l/m 0 min 0 min 0 W/m 31,5 km/h (5 Bft) 100,00 %
_ Min-Zeit 02:02 01:04 01:00 00:00 00:00 07:50 - - - - 17:18 07:28
Minimum _ 0,5 C 0,0 C -1,1 C 76 % 0 lf 998,4 hPa - - - - 9,0 km/h (2 Bft) 87,23 %
_ Max-Zeit 11:40 14:04 10:50 04:58 00:50 00:00 02:44 10:48 05:40 14:06 08:26 00:14
Maximum _ 5,7 C 7,2 C 4,4 C 97 % 15 lf 1008,3 hPa 0,2 l/m 2 min 5 min 257 W/m 51,8 km/h
W-SW (7 Bft)
100,00 %
Durchschnitt _ 3,1 C 2,8 C 1,4 C 90 % 7 lf 1001,8 hPa #6,6 l/m #52 min. #7:26 h 79 W/m 23,5 km/h (4 Bft) 96,35 %
© 2018 W. Hausmann